| time (UTC) | temp C | wind direction | speed KPH | gust KPH | rain 1hr cm | rain 24hr cm | rain mn cm | humidity % | barometer mb |
| 20260906104119 | 21 | 56 | 4.8 | 11.3 | 0.00 | 0.00 | 0.00 | 77 | 1014.3 |
| 20260906104016 | 21 | 3 | 6.4 | 11.3 | 0.00 | 0.00 | 0.00 | 77 | 1014.3 |
| 20260906103916 | 21 | 27 | 4.8 | 11.3 | 0.00 | 0.00 | 0.00 | 77 | 1014.3 |
| 20260906103813 | 21 | 0 | 3.2 | 11.3 | 0.00 | 0.00 | 0.00 | 76 | 1014.1 |
| 20260906103713 | 21 | 28 | 3.2 | 11.3 | 0.00 | 0.00 | 0.00 | 76 | 1014.2 |
| 20260906103610 | 21 | 10 | 4.8 | 11.3 | 0.00 | 0.00 | 0.00 | 76 | 1014.2 |
| 20260906103510 | 21 | 31 | 8.0 | 11.3 | 0.00 | 0.00 | 0.00 | 76 | 1014.2 |
| 20260906103407 | 21 | 34 | 8.0 | 11.3 | 0.00 | 0.00 | 0.00 | 76 | 1014.2 |
| 20260906103306 | 21 | 6 | 8.0 | 11.3 | 0.00 | 0.00 | 0.00 | 76 | 1014.2 |
| 20260906103204 | 21 | 61 | 8.0 | 11.3 | 0.00 | 0.00 | 0.00 | 76 | 1014.1 |
| 20260906103104 | 21 | 0 | 4.8 | 11.3 | 0.00 | 0.00 | 0.00 | 75 | 1014.1 |
| 20260906103003 | 21 | 51 | 3.2 | 11.3 | 0.00 | 0.00 | 0.00 | 75 | 1014.1 |
| 20260906102902 | 21 | 78 | 4.8 | 11.3 | 0.00 | 0.00 | 0.00 | 75 | 1014.1 |
| 20260906102802 | 21 | 63 | 4.8 | 11.3 | 0.00 | 0.00 | 0.00 | 75 | 1014.2 |
| 20260906102702 | 21 | 25 | 4.8 | 16.1 | 0.00 | 0.00 | 0.00 | 75 | 1014.1 |
| 20260906102602 | 21 | 1 | 6.4 | 16.1 | 0.00 | 0.00 | 0.00 | 75 | 1014.2 |
| 20260906102502 | 21 | 68 | 6.4 | 16.1 | 0.00 | 0.00 | 0.00 | 74 | 1014.2 |
| 20260906102402 | 21 | 32 | 8.0 | 16.1 | 0.00 | 0.00 | 0.00 | 74 | 1014.1 |
| 20260906102305 | 21 | 21 | 8.0 | 16.1 | 0.00 | 0.00 | 0.00 | 74 | 1014.2 |
| 20260906102202 | 21 | 28 | 6.4 | 16.1 | 0.00 | 0.00 | 0.00 | 74 | 1014.2 |
| 20260906102103 | 21 | 20 | 6.4 | 16.1 | 0.00 | 0.00 | 0.00 | 74 | 1014.2 |
| 20260906102003 | 21 | 24 | 6.4 | 16.1 | 0.00 | 0.00 | 0.00 | 74 | 1014.2 |
| 20260906101902 | 21 | 4 | 6.4 | 16.1 | 0.00 | 0.00 | 0.00 | 74 | 1014.1 |
| 20260906101803 | 21 | 357 | 8.0 | 16.1 | 0.00 | 0.00 | 0.00 | 74 | 1014.1 |
| 20260906101702 | 22 | 31 | 6.4 | 9.7 | 0.00 | 0.00 | 0.00 | 74 | 1014.1 |
| 20260906101602 | 22 | 16 | 3.2 | 6.4 | 0.00 | 0.00 | 0.00 | 74 | 1014.1 |
| 20260906101503 | 22 | 48 | 3.2 | 6.4 | 0.00 | 0.00 | 0.00 | 74 | 1014.0 |
| 20260906101403 | 22 | 49 | 3.2 | 8.0 | 0.00 | 0.00 | 0.00 | 74 | 1014.1 |
| 20260906101303 | 22 | 34 | 1.6 | 8.0 | 0.00 | 0.00 | 0.00 | 74 | 1014.1 |
| 20260906101202 | 22 | 32 | 3.2 | 8.0 | 0.00 | 0.00 | 0.00 | 74 | 1014.1 |
| 20260906101103 | 22 | 31 | 3.2 | 8.0 | 0.00 | 0.00 | 0.00 | 74 | 1014.1 |
| 20260906101002 | 22 | 56 | 1.6 | 8.0 | 0.00 | 0.00 | 0.00 | 74 | 1014.1 |
| 20260906100902 | 22 | 48 | 3.2 | 11.3 | 0.00 | 0.00 | 0.00 | 74 | 1014.2 |
| 20260906100802 | 22 | 49 | 4.8 | 11.3 | 0.00 | 0.00 | 0.00 | 74 | 1014.2 |
| 20260906100702 | 22 | 44 | 4.8 | 11.3 | 0.00 | 0.00 | 0.00 | 73 | 1014.1 |
| 20260906100602 | 22 | 55 | 4.8 | 11.3 | 0.00 | 0.00 | 0.00 | 73 | 1014.2 |
| 20260906100503 | 22 | 69 | 4.8 | 11.3 | 0.00 | 0.00 | 0.00 | 73 | 1014.2 |
| 20260906100402 | 22 | 58 | 3.2 | 11.3 | 0.00 | 0.00 | 0.00 | 73 | 1014.1 |
| 20260906100303 | 22 | 58 | 3.2 | 11.3 | 0.00 | 0.00 | 0.00 | 73 | 1014.2 |
| 20260906100202 | 22 | 63 | 4.8 | 11.3 | 0.00 | 0.00 | 0.00 | 73 | 1014.2 |
| 20260906100002 | 22 | 52 | 4.8 | 11.3 | 0.00 | 0.00 | 0.00 | 73 | 1014.2 |
| 20260906095902 | 22 | 85 | 4.8 | 11.3 | 0.00 | 0.00 | 0.00 | 73 | 1014.2 |
| 20260906095802 | 22 | 59 | 4.8 | 11.3 | 0.00 | 0.00 | 0.00 | 73 | 1014.1 |
| 20260906095703 | 22 | 66 | 4.8 | 11.3 | 0.00 | 0.00 | 0.00 | 73 | 1014.1 |
| 20260906095602 | 22 | 58 | 6.4 | 11.3 | 0.00 | 0.00 | 0.00 | 73 | 1014.1 |
| 20260906095502 | 22 | 38 | 4.8 | 11.3 | 0.00 | 0.00 | 0.00 | 73 | 1014.1 |
| 20260906095402 | 22 | 45 | 4.8 | 11.3 | 0.00 | 0.00 | 0.00 | 73 | 1014.0 |
| 20260906095305 | 22 | 21 | 6.4 | 11.3 | 0.00 | 0.00 | 0.00 | 73 | 1014.0 |
| 20260906095202 | 22 | 21 | 4.8 | 11.3 | 0.00 | 0.00 | 0.00 | 73 | 1014.0 |
| 20260906095102 | 22 | 41 | 6.4 | 11.3 | 0.00 | 0.00 | 0.00 | 73 | 1014.0 |
| 20260906095003 | 22 | 65 | 6.4 | 11.3 | 0.00 | 0.00 | 0.00 | 72 | 1013.9 |
| 20260906094903 | 22 | 68 | 4.8 | 9.7 | 0.00 | 0.00 | 0.00 | 72 | 1013.9 |
| 20260906094802 | 22 | 38 | 4.8 | 11.3 | 0.00 | 0.00 | 0.00 | 72 | 1014.0 |
| 20260906094702 | 22 | 68 | 4.8 | 11.3 | 0.00 | 0.00 | 0.00 | 72 | 1014.0 |
| 20260906094602 | 22 | 66 | 3.2 | 11.3 | 0.00 | 0.00 | 0.00 | 72 | 1014.0 |
| 20260906094502 | 22 | 58 | 3.2 | 11.3 | 0.00 | 0.00 | 0.00 | 72 | 1014.0 |
| 20260906094403 | 22 | 38 | 3.2 | 11.3 | 0.00 | 0.00 | 0.00 | 72 | 1014.0 |
| 20260906094302 | 22 | 38 | 4.8 | 11.3 | 0.00 | 0.00 | 0.00 | 72 | 1013.9 |
| 20260906094203 | 22 | 28 | 4.8 | 11.3 | 0.00 | 0.00 | 0.00 | 72 | 1013.9 |
| 20260906094102 | 22 | 13 | 6.4 | 11.3 | 0.00 | 0.00 | 0.00 | 72 | 1013.9 |
| 20260906094001 | 22 | 10 | 6.4 | 11.3 | 0.00 | 0.00 | 0.00 | 72 | 1013.9 |
| 20260906093902 | 22 | 58 | 4.8 | 11.3 | 0.00 | 0.00 | 0.00 | 72 | 1013.9 |
| 20260906093802 | 22 | 323 | 4.8 | 9.7 | 0.00 | 0.00 | 0.00 | 72 | 1013.9 |
| 20260906093703 | 22 | 58 | 6.4 | 9.7 | 0.00 | 0.00 | 0.00 | 72 | 1013.9 |
| 20260906093602 | 22 | 44 | 4.8 | 9.7 | 0.00 | 0.00 | 0.00 | 72 | 1013.9 |
| 20260906093502 | 22 | 32 | 3.2 | 9.7 | 0.00 | 0.00 | 0.00 | 72 | 1013.8 |
| 20260906093401 | 22 | 42 | 6.4 | 9.7 | 0.00 | 0.00 | 0.00 | 72 | 1013.9 |
| 20260906093302 | 21 | 87 | 6.4 | 9.7 | 0.00 | 0.00 | 0.00 | 72 | 1013.9 |
| 20260906093202 | 21 | 3 | 6.4 | 9.7 | 0.00 | 0.00 | 0.00 | 72 | 1013.9 |
| 20260906093102 | 21 | 14 | 6.4 | 9.7 | 0.00 | 0.00 | 0.00 | 72 | 1014.0 |
| 20260906093002 | 21 | 358 | 6.4 | 9.7 | 0.00 | 0.00 | 0.00 | 72 | 1014.0 |
| 20260906092902 | 21 | 28 | 4.8 | 9.7 | 0.00 | 0.00 | 0.00 | 72 | 1013.9 |
| 20260906092802 | 21 | 58 | 4.8 | 9.7 | 0.00 | 0.00 | 0.00 | 72 | 1013.9 |
| 20260906092702 | 21 | 47 | 4.8 | 9.7 | 0.00 | 0.00 | 0.00 | 72 | 1014.0 |
| 20260906092603 | 21 | 49 | 6.4 | 9.7 | 0.00 | 0.00 | 0.00 | 72 | 1014.0 |
| 20260906092503 | 21 | 345 | 6.4 | 9.7 | 0.00 | 0.00 | 0.00 | 72 | 1014.0 |
| 20260906092402 | 21 | 21 | 3.2 | 11.3 | 0.00 | 0.00 | 0.00 | 72 | 1014.0 |
| 20260906092305 | 21 | 14 | 4.8 | 11.3 | 0.00 | 0.00 | 0.00 | 72 | 1014.0 |
| 20260906092202 | 21 | 0 | 4.8 | 11.3 | 0.00 | 0.00 | 0.00 | 72 | 1014.1 |
| 20260906092102 | 21 | 0 | 6.4 | 11.3 | 0.00 | 0.00 | 0.00 | 72 | 1014.0 |
| 20260906092002 | 21 | 13 | 4.8 | 11.3 | 0.00 | 0.00 | 0.00 | 72 | 1014.0 |
| 20260906091902 | 21 | 47 | 4.8 | 11.3 | 0.00 | 0.00 | 0.00 | 72 | 1014.0 |
| 20260906091802 | 21 | 16 | 6.4 | 11.3 | 0.00 | 0.00 | 0.00 | 72 | 1014.0 |
| 20260906091703 | 21 | 13 | 8.0 | 11.3 | 0.00 | 0.00 | 0.00 | 72 | 1014.0 |
| 20260906091601 | 21 | 0 | 8.0 | 11.3 | 0.00 | 0.00 | 0.00 | 72 | 1014.0 |
| 20260906091502 | 21 | 4 | 6.4 | 11.3 | 0.00 | 0.00 | 0.00 | 72 | 1014.0 |
| 20260906091402 | 21 | 56 | 4.8 | 14.5 | 0.00 | 0.00 | 0.00 | 72 | 1014.0 |
| 20260906091302 | 21 | 49 | 6.4 | 14.5 | 0.00 | 0.00 | 0.00 | 72 | 1014.0 |
| 20260906091203 | 21 | 7 | 6.4 | 14.5 | 0.00 | 0.00 | 0.00 | 72 | 1014.0 |
| 20260906091101 | 21 | 18 | 4.8 | 14.5 | 0.00 | 0.00 | 0.00 | 72 | 1014.0 |
| 20260906091002 | 21 | 0 | 4.8 | 14.5 | 0.00 | 0.00 | 0.00 | 72 | 1014.0 |
| 20260906090902 | 21 | 37 | 6.4 | 14.5 | 0.00 | 0.00 | 0.00 | 72 | 1014.0 |
| 20260906090802 | 21 | 0 | 6.4 | 14.5 | 0.00 | 0.00 | 0.00 | 72 | 1014.0 |
| 20260906090702 | 21 | 13 | 8.0 | 14.5 | 0.00 | 0.00 | 0.00 | 72 | 1013.9 |
| 20260906090602 | 21 | 344 | 6.4 | 14.5 | 0.00 | 0.00 | 0.00 | 72 | 1013.9 |
| 20260906090503 | 21 | 24 | 4.8 | 14.5 | 0.00 | 0.00 | 0.00 | 72 | 1014.0 |
| 20260906090403 | 21 | 31 | 3.2 | 9.7 | 0.00 | 0.00 | 0.00 | 72 | 1013.9 |
| 20260906090302 | 21 | 37 | 4.8 | 9.7 | 0.00 | 0.00 | 0.00 | 72 | 1013.9 |
| 20260906090202 | 21 | 1 | 4.8 | 9.7 | 0.00 | 0.00 | 0.00 | 72 | 1013.9 |
| 20260906090002 | 21 | 16 | 6.4 | 8.0 | 0.00 | 0.00 | 0.00 | 72 | 1014.0 |
| 20260906085902 | 21 | 1 | 4.8 | 8.0 | 0.00 | 0.00 | 0.00 | 72 | 1014.0 |
| 20260906085802 | 21 | 16 | 3.2 | 8.0 | 0.00 | 0.00 | 0.00 | 72 | 1013.8 |
| 20260906085702 | 21 | 21 | 4.8 | 8.0 | 0.00 | 0.00 | 0.00 | 72 | 1013.8 |
| 20260906085602 | 21 | 30 | 4.8 | 8.0 | 0.00 | 0.00 | 0.00 | 72 | 1013.8 |
| 20260906085503 | 21 | 14 | 4.8 | 8.0 | 0.00 | 0.00 | 0.00 | 72 | 1013.8 |
| 20260906085402 | 21 | 358 | 4.8 | 6.4 | 0.00 | 0.00 | 0.00 | 72 | 1013.7 |
| 20260906085306 | 21 | 16 | 3.2 | 9.7 | 0.00 | 0.00 | 0.00 | 72 | 1013.7 |
| 20260906085202 | 21 | 18 | 3.2 | 9.7 | 0.00 | 0.00 | 0.00 | 72 | 1013.8 |
| 20260906085102 | 21 | 18 | 3.2 | 9.7 | 0.00 | 0.00 | 0.00 | 72 | 1013.7 |
| 20260906085002 | 21 | 38 | 3.2 | 9.7 | 0.00 | 0.00 | 0.00 | 72 | 1013.7 |
| 20260906084903 | 21 | 38 | 3.2 | 9.7 | 0.00 | 0.00 | 0.00 | 72 | 1013.7 |
| 20260906084803 | 21 | 6 | 3.2 | 9.7 | 0.00 | 0.00 | 0.00 | 72 | 1013.7 |
| 20260906084701 | 21 | 51 | 3.2 | 9.7 | 0.00 | 0.00 | 0.00 | 72 | 1013.7 |
| 20260906084602 | 21 | 11 | 4.8 | 9.7 | 0.00 | 0.00 | 0.00 | 72 | 1013.7 |
| 20260906084502 | 21 | 1 | 4.8 | 9.7 | 0.00 | 0.00 | 0.00 | 72 | 1013.7 |
| 20260906084404 | 21 | 20 | 6.4 | 9.7 | 0.00 | 0.00 | 0.00 | 72 | 1013.7 |
| 20260906084301 | 21 | 14 | 4.8 | 8.0 | 0.00 | 0.00 | 0.00 | 72 | 1013.7 |
| 20260906084201 | 21 | 56 | 4.8 | 8.0 | 0.00 | 0.00 | 0.00 | 72 | 1013.7 |
| 20260906084102 | 21 | 18 | 4.8 | 8.0 | 0.00 | 0.00 | 0.00 | 72 | 1013.7 |
| 20260906084002 | 21 | 11 | 4.8 | 8.0 | 0.00 | 0.00 | 0.00 | 72 | 1013.6 |
| 20260906083903 | 21 | 21 | 3.2 | 8.0 | 0.00 | 0.00 | 0.00 | 72 | 1013.6 |
| 20260906083802 | 21 | 14 | 4.8 | 8.0 | 0.00 | 0.00 | 0.00 | 72 | 1013.6 |
| 20260906083702 | 21 | 17 | 4.8 | 9.7 | 0.00 | 0.00 | 0.00 | 72 | 1013.6 |
| 20260906083602 | 21 | 32 | 3.2 | 9.7 | 0.00 | 0.00 | 0.00 | 72 | 1013.6 |
| 20260906083503 | 21 | 34 | 3.2 | 9.7 | 0.00 | 0.00 | 0.00 | 72 | 1013.6 |
| 20260906083401 | 21 | 47 | 4.8 | 9.7 | 0.00 | 0.00 | 0.00 | 72 | 1013.6 |
| 20260906083302 | 21 | 16 | 3.2 | 9.7 | 0.00 | 0.00 | 0.00 | 72 | 1013.6 |
| 20260906083202 | 21 | 3 | 3.2 | 9.7 | 0.00 | 0.00 | 0.00 | 72 | 1013.6 |
| 20260906083102 | 21 | 13 | 3.2 | 9.7 | 0.00 | 0.00 | 0.00 | 72 | 1013.6 |
| 20260906083002 | 21 | 21 | 4.8 | 9.7 | 0.00 | 0.00 | 0.00 | 72 | 1013.7 |
| 20260906082901 | 22 | 14 | 4.8 | 9.7 | 0.00 | 0.00 | 0.00 | 72 | 1013.6 |
| 20260906082802 | 22 | 20 | 4.8 | 9.7 | 0.00 | 0.00 | 0.00 | 72 | 1013.6 |
| 20260906082702 | 22 | 7 | 3.2 | 8.0 | 0.00 | 0.00 | 0.00 | 72 | 1013.6 |
| 20260906082602 | 22 | 1 | 3.2 | 8.0 | 0.00 | 0.00 | 0.00 | 72 | 1013.6 |
| 20260906082502 | 22 | 25 | 3.2 | 8.0 | 0.00 | 0.00 | 0.00 | 72 | 1013.7 |
| 20260906082402 | 22 | 25 | 3.2 | 11.3 | 0.00 | 0.00 | 0.00 | 72 | 1013.6 |
| 20260906082305 | 22 | 42 | 4.8 | 11.3 | 0.00 | 0.00 | 0.00 | 72 | 1013.6 |
| 20260906082202 | 22 | 4 | 4.8 | 11.3 | 0.00 | 0.00 | 0.00 | 72 | 1013.6 |
| 20260906082102 | 22 | 25 | 3.2 | 11.3 | 0.00 | 0.00 | 0.00 | 72 | 1013.6 |
| 20260906082003 | 22 | 0 | 1.6 | 11.3 | 0.00 | 0.00 | 0.00 | 72 | 1013.6 |
| 20260906081903 | 22 | 0 | 3.2 | 11.3 | 0.00 | 0.00 | 0.00 | 72 | 1013.4 |
| 20260906081801 | 22 | 0 | 3.2 | 11.3 | 0.00 | 0.00 | 0.00 | 72 | 1013.6 |
| 20260906081702 | 22 | 6 | 3.2 | 11.3 | 0.00 | 0.00 | 0.00 | 72 | 1013.6 |
| 20260906081602 | 22 | 6 | 4.8 | 11.3 | 0.00 | 0.00 | 0.00 | 72 | 1013.6 |
| 20260906081503 | 22 | 1 | 6.4 | 11.3 | 0.00 | 0.00 | 0.00 | 72 | 1013.4 |
| 20260906081402 | 22 | 14 | 4.8 | 8.0 | 0.00 | 0.00 | 0.00 | 72 | 1013.4 |
| 20260906081302 | 22 | 11 | 3.2 | 8.0 | 0.00 | 0.00 | 0.00 | 72 | 1013.4 |
| 20260906081202 | 22 | 0 | 4.8 | 8.0 | 0.00 | 0.00 | 0.00 | 72 | 1013.6 |
| 20260906081103 | 22 | 10 | 6.4 | 8.0 | 0.00 | 0.00 | 0.00 | 72 | 1013.4 |
| 20260906081003 | 22 | 3 | 4.8 | 9.7 | 0.00 | 0.00 | 0.00 | 72 | 1013.4 |
| 20260906080902 | 22 | 1 | 3.2 | 11.3 | 0.00 | 0.00 | 0.00 | 72 | 1013.3 |
| 20260906080803 | 22 | 1 | 3.2 | 11.3 | 0.00 | 0.00 | 0.00 | 72 | 1013.4 |
| 20260906080702 | 22 | 348 | 3.2 | 11.3 | 0.00 | 0.00 | 0.00 | 72 | 1013.3 |
| 20260906080601 | 22 | 13 | 3.2 | 11.3 | 0.00 | 0.00 | 0.00 | 72 | 1013.4 |
| 20260906080502 | 22 | 7 | 1.6 | 11.3 | 0.00 | 0.00 | 0.00 | 72 | 1013.4 |
| 20260906080402 | 22 | 7 | 4.8 | 11.3 | 0.00 | 0.00 | 0.00 | 72 | 1013.3 |
| 20260906080301 | 22 | 3 | 6.4 | 11.3 | 0.00 | 0.00 | 0.00 | 72 | 1013.3 |
| 20260906080201 | 22 | 0 | 8.0 | 11.3 | 0.00 | 0.00 | 0.00 | 72 | 1013.2 |
| 20260906080003 | 22 | 7 | 6.4 | 11.3 | 0.00 | 0.00 | 0.00 | 72 | 1013.2 |
| 20260906075902 | 22 | 10 | 4.8 | 9.7 | 0.00 | 0.00 | 0.00 | 72 | 1013.3 |
| 20260906075803 | 22 | 10 | 6.4 | 9.7 | 0.00 | 0.00 | 0.00 | 72 | 1013.3 |
| 20260906075702 | 22 | 0 | 6.4 | 11.3 | 0.00 | 0.00 | 0.00 | 72 | 1013.3 |
| 20260906075602 | 22 | 14 | 4.8 | 11.3 | 0.00 | 0.00 | 0.00 | 72 | 1013.3 |
| 20260906075503 | 22 | 7 | 6.4 | 11.3 | 0.00 | 0.00 | 0.00 | 72 | 1013.3 |
| 20260906075402 | 22 | 31 | 6.4 | 11.3 | 0.00 | 0.00 | 0.00 | 72 | 1013.3 |
| 20260906075305 | 22 | 32 | 4.8 | 11.3 | 0.00 | 0.00 | 0.00 | 72 | 1013.3 |
| 20260906075202 | 22 | 30 | 4.8 | 11.3 | 0.00 | 0.00 | 0.00 | 72 | 1013.3 |
| 20260906075102 | 22 | 27 | 4.8 | 11.3 | 0.00 | 0.00 | 0.00 | 72 | 1013.3 |
| 20260906075002 | 22 | 1 | 6.4 | 11.3 | 0.00 | 0.00 | 0.00 | 72 | 1013.3 |
| 20260906074901 | 22 | 20 | 9.7 | 11.3 | 0.00 | 0.00 | 0.00 | 72 | 1013.3 |
| 20260906074801 | 22 | 1 | 8.0 | 11.3 | 0.00 | 0.00 | 0.00 | 72 | 1013.3 |
| 20260906074702 | 22 | 4 | 6.4 | 9.7 | 0.00 | 0.00 | 0.00 | 73 | 1013.3 |
| 20260906074602 | 22 | 24 | 6.4 | 9.7 | 0.00 | 0.00 | 0.00 | 73 | 1013.3 |
| 20260906074502 | 22 | 0 | 6.4 | 9.7 | 0.00 | 0.00 | 0.00 | 73 | 1013.3 |
| 20260906074403 | 22 | 351 | 3.2 | 9.7 | 0.00 | 0.00 | 0.00 | 73 | 1013.3 |
| 20260906074302 | 22 | 344 | 3.2 | 9.7 | 0.00 | 0.00 | 0.00 | 73 | 1013.3 |
| 20260906074202 | 21 | 343 | 6.4 | 9.7 | 0.00 | 0.00 | 0.00 | 73 | 1013.3 |
| 20260906074102 | 21 | 14 | 6.4 | 9.7 | 0.00 | 0.00 | 0.00 | 73 | 1013.4 |
| 20260906074003 | 21 | 0 | 4.8 | 8.0 | 0.00 | 0.00 | 0.00 | 73 | 1013.4 |
| 20260906073902 | 21 | 11 | 4.8 | 8.0 | 0.00 | 0.00 | 0.00 | 73 | 1013.3 |
| 20260906073802 | 21 | 4 | 4.8 | 8.0 | 0.00 | 0.00 | 0.00 | 73 | 1013.3 |
| 20260906073702 | 21 | 7 | 4.8 | 8.0 | 0.00 | 0.00 | 0.00 | 73 | 1013.3 |
| 20260906073602 | 21 | 7 | 4.8 | 8.0 | 0.00 | 0.00 | 0.00 | 73 | 1013.2 |
| 20260906073502 | 21 | 18 | 4.8 | 8.0 | 0.00 | 0.00 | 0.00 | 73 | 1013.3 |
| 20260906073403 | 21 | 18 | 4.8 | 8.0 | 0.00 | 0.00 | 0.00 | 73 | 1013.3 |
| 20260906073302 | 21 | 21 | 3.2 | 9.7 | 0.00 | 0.00 | 0.00 | 73 | 1013.3 |
| 20260906073202 | 21 | 7 | 3.2 | 9.7 | 0.00 | 0.00 | 0.00 | 73 | 1013.3 |
| 20260906073102 | 21 | 6 | 3.2 | 9.7 | 0.00 | 0.00 | 0.00 | 73 | 1013.3 |
| 20260906073002 | 21 | 17 | 4.8 | 9.7 | 0.00 | 0.00 | 0.00 | 73 | 1013.3 |
| 20260906072902 | 21 | 3 | 4.8 | 9.7 | 0.00 | 0.00 | 0.00 | 73 | 1013.3 |
| 20260906072802 | 21 | 358 | 4.8 | 9.7 | 0.00 | 0.00 | 0.00 | 73 | 1013.2 |
| 20260906072702 | 21 | 17 | 4.8 | 9.7 | 0.00 | 0.00 | 0.00 | 73 | 1013.2 |
| 20260906072602 | 21 | 18 | 3.2 | 9.7 | 0.00 | 0.00 | 0.00 | 73 | 1013.2 |
| 20260906072503 | 21 | 13 | 4.8 | 9.7 | 0.00 | 0.00 | 0.00 | 73 | 1013.2 |
| 20260906072402 | 21 | 11 | 6.4 | 9.7 | 0.00 | 0.00 | 0.00 | 73 | 1013.2 |
| 20260906072305 | 21 | 0 | 6.4 | 9.7 | 0.00 | 0.00 | 0.00 | 73 | 1013.2 |
| 20260906072203 | 21 | 0 | 6.4 | 11.3 | 0.00 | 0.00 | 0.00 | 73 | 1013.2 |
| 20260906072102 | 21 | 0 | 6.4 | 11.3 | 0.00 | 0.00 | 0.00 | 73 | 1013.2 |
| 20260906072001 | 21 | 0 | 8.0 | 11.3 | 0.00 | 0.00 | 0.00 | 73 | 1013.2 |
| 20260906071902 | 21 | 8 | 6.4 | 11.3 | 0.00 | 0.00 | 0.00 | 74 | 1013.2 |
| 20260906071802 | 21 | 8 | 6.4 | 11.3 | 0.00 | 0.00 | 0.00 | 74 | 1013.2 |
| 20260906071702 | 21 | 14 | 6.4 | 11.3 | 0.00 | 0.00 | 0.00 | 74 | 1013.2 |
| 20260906071602 | 22 | 21 | 4.8 | 11.3 | 0.00 | 0.00 | 0.00 | 74 | 1013.3 |
| 20260906071502 | 22 | 6 | 6.4 | 11.3 | 0.00 | 0.00 | 0.00 | 74 | 1013.3 |
| 20260906071402 | 21 | 25 | 8.0 | 11.3 | 0.00 | 0.00 | 0.00 | 74 | 1013.2 |
| 20260906071303 | 21 | 25 | 8.0 | 11.3 | 0.00 | 0.00 | 0.00 | 74 | 1013.3 |
| 20260906071201 | 21 | 10 | 6.4 | 11.3 | 0.00 | 0.00 | 0.00 | 74 | 1013.3 |
| 20260906071102 | 21 | 6 | 6.4 | 11.3 | 0.00 | 0.00 | 0.00 | 74 | 1013.3 |
| 20260906071002 | 22 | 11 | 6.4 | 9.7 | 0.00 | 0.00 | 0.00 | 74 | 1013.4 |
| 20260906070902 | 22 | 20 | 6.4 | 9.7 | 0.00 | 0.00 | 0.00 | 74 | 1013.3 |
| 20260906070801 | 22 | 0 | 6.4 | 9.7 | 0.00 | 0.00 | 0.00 | 74 | 1013.3 |
| 20260906070701 | 22 | 18 | 6.4 | 9.7 | 0.00 | 0.00 | 0.00 | 74 | 1013.3 |
| 20260906070602 | 22 | 1 | 6.4 | 9.7 | 0.00 | 0.00 | 0.00 | 74 | 1013.3 |
| 20260906070503 | 22 | 10 | 6.4 | 9.7 | 0.00 | 0.00 | 0.00 | 74 | 1013.3 |
| 20260906070402 | 22 | 6 | 6.4 | 11.3 | 0.00 | 0.00 | 0.00 | 74 | 1013.3 |
| 20260906070302 | 22 | 25 | 4.8 | 11.3 | 0.00 | 0.00 | 0.00 | 74 | 1013.3 |
| 20260906070202 | 22 | 3 | 6.4 | 11.3 | 0.00 | 0.00 | 0.00 | 74 | 1013.3 |
| 20260906070107 | 22 | 24 | 4.8 | 11.3 | 0.00 | 0.00 | 0.00 | 74 | 1013.3 |
| 20260906070002 | 22 | 13 | 4.8 | 11.3 | 0.00 | 0.00 | 0.00 | 74 | 1013.3 |
| 20260906065902 | 22 | 44 | 4.8 | 11.3 | 0.00 | 0.00 | 0.00 | 74 | 1013.3 |
| 20260906065802 | 22 | 20 | 4.8 | 11.3 | 0.00 | 0.00 | 0.00 | 74 | 1013.3 |
| 20260906065703 | 22 | 11 | 6.4 | 11.3 | 0.00 | 0.00 | 0.00 | 74 | 1013.3 |
| 20260906065603 | 22 | 13 | 6.4 | 11.3 | 0.00 | 0.00 | 0.00 | 74 | 1013.3 |
| 20260906065503 | 22 | 52 | 6.4 | 11.3 | 0.00 | 0.00 | 0.00 | 74 | 1013.4 |
| 20260906065403 | 22 | 0 | 4.8 | 9.7 | 0.00 | 0.00 | 0.00 | 74 | 1013.4 |
| 20260906065305 | 22 | 25 | 3.2 | 9.7 | 0.00 | 0.00 | 0.00 | 74 | 1013.4 |
| 20260906065202 | 22 | 27 | 3.2 | 9.7 | 0.00 | 0.00 | 0.00 | 74 | 1013.3 |
| 20260906065102 | 22 | 34 | 4.8 | 9.7 | 0.00 | 0.00 | 0.00 | 74 | 1013.3 |
| 20260906065003 | 22 | 27 | 6.4 | 9.7 | 0.00 | 0.00 | 0.00 | 74 | 1013.3 |
| 20260906064902 | 22 | 28 | 6.4 | 9.7 | 0.00 | 0.00 | 0.00 | 74 | 1013.4 |
| 20260906064802 | 22 | 0 | 4.8 | 8.0 | 0.00 | 0.00 | 0.00 | 74 | 1013.3 |
| 20260906064702 | 22 | 13 | 4.8 | 8.0 | 0.00 | 0.00 | 0.00 | 74 | 1013.3 |
| 20260906064602 | 22 | 21 | 3.2 | 8.0 | 0.00 | 0.00 | 0.00 | 74 | 1013.4 |
| 20260906064503 | 22 | 13 | 3.2 | 8.0 | 0.00 | 0.00 | 0.00 | 75 | 1013.4 |
| 20260906064402 | 22 | 10 | 4.8 | 8.0 | 0.00 | 0.00 | 0.00 | 74 | 1013.6 |
| 20260906064302 | 22 | 0 | 4.8 | 8.0 | 0.00 | 0.00 | 0.00 | 75 | 1013.4 |
| 20260906064202 | 22 | 0 | 4.8 | 8.0 | 0.00 | 0.00 | 0.00 | 75 | 1013.6 |
| 20260906064102 | 22 | 0 | 6.4 | 8.0 | 0.00 | 0.00 | 0.00 | 75 | 1013.7 |
| 20260906064003 | 22 | 18 | 6.4 | 8.0 | 0.00 | 0.00 | 0.00 | 75 | 1013.7 |
| 20260906063902 | 22 | 1 | 4.8 | 8.0 | 0.00 | 0.00 | 0.00 | 75 | 1013.7 |
| 20260906063802 | 22 | 0 | 3.2 | 6.4 | 0.00 | 0.00 | 0.00 | 75 | 1013.7 |
| 20260906063702 | 22 | 0 | 3.2 | 6.4 | 0.00 | 0.00 | 0.00 | 75 | 1013.7 |
| 20260906063602 | 22 | 0 | 3.2 | 6.4 | 0.00 | 0.00 | 0.00 | 75 | 1013.7 |
| 20260906063502 | 22 | 0 | 3.2 | 6.4 | 0.00 | 0.00 | 0.00 | 75 | 1013.7 |
| 20260906063402 | 22 | 0 | 3.2 | 6.4 | 0.00 | 0.00 | 0.00 | 75 | 1013.7 |
| 20260906063303 | 22 | 0 | 1.6 | 6.4 | 0.00 | 0.00 | 0.00 | 75 | 1013.7 |
| 20260906063202 | 22 | 0 | 1.6 | 6.4 | 0.00 | 0.00 | 0.00 | 75 | 1013.7 |
| 20260906063102 | 22 | 0 | 3.2 | 6.4 | 0.00 | 0.00 | 0.00 | 75 | 1013.6 |
| 20260906063002 | 22 | 0 | 3.2 | 6.4 | 0.00 | 0.00 | 0.00 | 75 | 1013.7 |
| 20260906062903 | 22 | 0 | 3.2 | 6.4 | 0.00 | 0.00 | 0.00 | 75 | 1013.6 |
| 20260906062803 | 22 | 354 | 3.2 | 6.4 | 0.00 | 0.00 | 0.00 | 75 | 1013.7 |
| 20260906062702 | 22 | 353 | 3.2 | 6.4 | 0.00 | 0.00 | 0.00 | 75 | 1013.6 |
| 20260906062602 | 22 | 353 | 1.6 | 6.4 | 0.00 | 0.00 | 0.00 | 75 | 1013.6 |
| 20260906062503 | 22 | 351 | 3.2 | 6.4 | 0.00 | 0.00 | 0.00 | 75 | 1013.6 |
| 20260906062403 | 22 | 351 | 3.2 | 6.4 | 0.00 | 0.00 | 0.00 | 76 | 1013.7 |
| 20260906062305 | 22 | 355 | 3.2 | 6.4 | 0.00 | 0.00 | 0.00 | 76 | 1013.6 |
| 20260906062202 | 22 | 355 | 1.6 | 6.4 | 0.00 | 0.00 | 0.00 | 76 | 1013.7 |
| 20260906062102 | 22 | 358 | 1.6 | 6.4 | 0.00 | 0.00 | 0.00 | 76 | 1013.7 |
| 20260906062003 | 22 | 0 | 1.6 | 6.4 | 0.00 | 0.00 | 0.00 | 76 | 1013.7 |
| 20260906061901 | 22 | 0 | 1.6 | 6.4 | 0.00 | 0.00 | 0.00 | 76 | 1013.7 |
| 20260906061802 | 22 | 358 | 1.6 | 6.4 | 0.00 | 0.00 | 0.00 | 76 | 1013.6 |
| 20260906061702 | 22 | 358 | 3.2 | 6.4 | 0.00 | 0.00 | 0.00 | 76 | 1013.6 |
| 20260906061602 | 22 | 0 | 3.2 | 6.4 | 0.00 | 0.00 | 0.00 | 76 | 1013.6 |
| 20260906061502 | 22 | 357 | 1.6 | 4.8 | 0.00 | 0.00 | 0.00 | 76 | 1013.6 |
| 20260906061402 | 22 | 357 | 3.2 | 4.8 | 0.00 | 0.00 | 0.00 | 76 | 1013.6 |
| 20260906061302 | 22 | 357 | 1.6 | 4.8 | 0.00 | 0.00 | 0.00 | 76 | 1013.7 |
| 20260906061203 | 22 | 357 | 1.6 | 4.8 | 0.00 | 0.00 | 0.00 | 76 | 1013.6 |
| 20260906061102 | 22 | 357 | 1.6 | 4.8 | 0.00 | 0.00 | 0.00 | 76 | 1013.6 |
| 20260906061002 | 22 | 357 | 1.6 | 4.8 | 0.00 | 0.00 | 0.00 | 76 | 1013.6 |
| 20260906060902 | 22 | 357 | 1.6 | 4.8 | 0.00 | 0.00 | 0.00 | 76 | 1013.7 |
| 20260906060802 | 22 | 357 | 1.6 | 4.8 | 0.00 | 0.00 | 0.00 | 76 | 1013.7 |
| 20260906060702 | 22 | 357 | 1.6 | 4.8 | 0.00 | 0.00 | 0.00 | 76 | 1013.7 |
| 20260906060602 | 22 | 357 | 3.2 | 4.8 | 0.00 | 0.00 | 0.00 | 76 | 1013.6 |
| 20260906060502 | 22 | 357 | 3.2 | 4.8 | 0.00 | 0.00 | 0.00 | 76 | 1013.7 |
| 20260906060402 | 22 | 357 | 3.2 | 4.8 | 0.00 | 0.00 | 0.00 | 76 | 1013.7 |
| 20260906060303 | 22 | 4 | 3.2 | 4.8 | 0.00 | 0.00 | 0.00 | 76 | 1013.7 |
| 20260906060202 | 22 | 4 | 1.6 | 4.8 | 0.00 | 0.00 | 0.00 | 76 | 1013.7 |
| 20260906060002 | 22 | 10 | 1.6 | 4.8 | 0.00 | 0.00 | 0.00 | 77 | 1013.7 |
| 20260906055902 | 22 | 10 | 0.0 | 4.8 | 0.00 | 0.00 | 0.00 | 77 | 1013.6 |
| 20260906055802 | 22 | 10 | 0.0 | 4.8 | 0.00 | 0.00 | 0.00 | 77 | 1013.7 |
| 20260906055702 | 22 | 10 | 0.0 | 4.8 | 0.00 | 0.00 | 0.00 | 77 | 1013.7 |
| 20260906055602 | 22 | 10 | 1.6 | 4.8 | 0.00 | 0.00 | 0.00 | 77 | 1013.7 |
| 20260906055502 | 22 | 10 | 1.6 | 4.8 | 0.00 | 0.00 | 0.00 | 77 | 1013.6 |
| 20260906055402 | 22 | 10 | 1.6 | 4.8 | 0.00 | 0.00 | 0.00 | 77 | 1013.6 |
| 20260906055306 | 22 | 10 | 1.6 | 4.8 | 0.00 | 0.00 | 0.00 | 77 | 1013.7 |
| 20260906055202 | 22 | 10 | 1.6 | 4.8 | 0.00 | 0.00 | 0.00 | 77 | 1013.6 |
| 20260906055103 | 22 | 10 | 1.6 | 4.8 | 0.00 | 0.00 | 0.00 | 77 | 1013.7 |
| 20260906055003 | 22 | 10 | 1.6 | 4.8 | 0.00 | 0.00 | 0.00 | 77 | 1013.6 |
| 20260906054902 | 22 | 10 | 1.6 | 4.8 | 0.00 | 0.00 | 0.00 | 77 | 1013.6 |
| 20260906054803 | 22 | 10 | 1.6 | 4.8 | 0.00 | 0.00 | 0.00 | 77 | 1013.7 |
| 20260906054702 | 22 | 10 | 1.6 | 4.8 | 0.00 | 0.00 | 0.00 | 77 | 1013.7 |
| 20260906054602 | 22 | 10 | 3.2 | 4.8 | 0.00 | 0.00 | 0.00 | 77 | 1013.7 |
| 20260906054504 | 22 | 11 | 3.2 | 4.8 | 0.00 | 0.00 | 0.00 | 77 | 1013.7 |
| 20260906054403 | 22 | 13 | 3.2 | 4.8 | 0.00 | 0.00 | 0.00 | 77 | 1013.6 |
| 20260906054302 | 22 | 23 | 3.2 | 4.8 | 0.00 | 0.00 | 0.00 | 77 | 1013.7 |
| 20260906054202 | 22 | 28 | 1.6 | 3.2 | 0.00 | 0.00 | 0.00 | 77 | 1013.6 |
| 20260906054102 | 22 | 28 | 1.6 | 3.2 | 0.00 | 0.00 | 0.00 | 77 | 1013.6 |
| 20260906054003 | 22 | 28 | 1.6 | 3.2 | 0.00 | 0.00 | 0.00 | 77 | 1013.6 |
| 20260906053902 | 22 | 28 | 1.6 | 3.2 | 0.00 | 0.00 | 0.00 | 77 | 1013.6 |
| 20260906053801 | 22 | 28 | 0.0 | 3.2 | 0.00 | 0.00 | 0.00 | 77 | 1013.4 |
| 20260906053702 | 22 | 28 | 0.0 | 3.2 | 0.00 | 0.00 | 0.00 | 77 | 1013.6 |
| 20260906053602 | 22 | 28 | 0.0 | 3.2 | 0.00 | 0.00 | 0.00 | 78 | 1013.6 |
| 20260906053503 | 22 | 28 | 0.0 | 8.0 | 0.00 | 0.00 | 0.00 | 78 | 1013.4 |
| 20260906053402 | 22 | 28 | 0.0 | 8.0 | 0.00 | 0.00 | 0.00 | 78 | 1013.6 |
| 20260906053302 | 22 | 28 | 1.6 | 8.0 | 0.00 | 0.00 | 0.00 | 78 | 1013.6 |
| 20260906053202 | 22 | 28 | 0.0 | 8.0 | 0.00 | 0.00 | 0.00 | 78 | 1013.4 |
| 20260906053103 | 22 | 28 | 0.0 | 8.0 | 0.00 | 0.00 | 0.00 | 78 | 1013.4 |
| 20260906053003 | 22 | 28 | 0.0 | 8.0 | 0.00 | 0.00 | 0.00 | 78 | 1013.4 |
| 20260906052902 | 22 | 28 | 1.6 | 8.0 | 0.00 | 0.00 | 0.00 | 78 | 1013.4 |
| 20260906052802 | 22 | 28 | 1.6 | 8.0 | 0.00 | 0.00 | 0.00 | 78 | 1013.4 |
| 20260906052702 | 22 | 28 | 3.2 | 8.0 | 0.00 | 0.00 | 0.00 | 78 | 1013.4 |
| 20260906052602 | 22 | 30 | 3.2 | 8.0 | 0.00 | 0.00 | 0.00 | 78 | 1013.4 |
| 20260906052502 | 22 | 0 | 1.6 | 4.8 | 0.00 | 0.00 | 0.00 | 78 | 1013.3 |
| 20260906052402 | 22 | 0 | 1.6 | 4.8 | 0.00 | 0.00 | 0.00 | 78 | 1013.4 |
| 20260906052305 | 22 | 0 | 1.6 | 4.8 | 0.00 | 0.00 | 0.00 | 78 | 1013.4 |
| 20260906052202 | 22 | 0 | 1.6 | 4.8 | 0.00 | 0.00 | 0.00 | 78 | 1013.4 |
| 20260906052102 | 22 | 0 | 1.6 | 4.8 | 0.00 | 0.00 | 0.00 | 78 | 1013.4 |
| 20260906052002 | 22 | 0 | 3.2 | 4.8 | 0.00 | 0.00 | 0.00 | 78 | 1013.4 |
| 20260906051903 | 22 | 0 | 3.2 | 4.8 | 0.00 | 0.00 | 0.00 | 79 | 1013.4 |
| 20260906051802 | 22 | 0 | 1.6 | 4.8 | 0.00 | 0.00 | 0.00 | 79 | 1013.4 |
| 20260906051702 | 22 | 4 | 1.6 | 3.2 | 0.00 | 0.00 | 0.00 | 79 | 1013.4 |
| 20260906051602 | 22 | 4 | 0.0 | 3.2 | 0.00 | 0.00 | 0.00 | 79 | 1013.3 |
| 20260906051502 | 22 | 4 | 0.0 | 4.8 | 0.00 | 0.00 | 0.00 | 79 | 1013.3 |
| 20260906051402 | 22 | 4 | 0.0 | 4.8 | 0.00 | 0.00 | 0.00 | 79 | 1013.3 |
| 20260906051302 | 22 | 4 | 0.0 | 4.8 | 0.00 | 0.00 | 0.00 | 79 | 1013.4 |
| 20260906051202 | 22 | 4 | 1.6 | 4.8 | 0.00 | 0.00 | 0.00 | 79 | 1013.4 |
| 20260906051102 | 22 | 4 | 1.6 | 4.8 | 0.00 | 0.00 | 0.00 | 79 | 1013.4 |
| 20260906051003 | 22 | 4 | 1.6 | 6.4 | 0.00 | 0.00 | 0.00 | 79 | 1013.4 |
| 20260906050902 | 22 | 7 | 1.6 | 6.4 | 0.00 | 0.00 | 0.00 | 79 | 1013.4 |
| 20260906050802 | 22 | 7 | 1.6 | 6.4 | 0.00 | 0.00 | 0.00 | 79 | 1013.4 |
| 20260906050703 | 22 | 8 | 1.6 | 6.4 | 0.00 | 0.00 | 0.00 | 79 | 1013.4 |
| 20260906050602 | 22 | 8 | 1.6 | 6.4 | 0.00 | 0.00 | 0.00 | 79 | 1013.4 |
| 20260906050502 | 22 | 4 | 1.6 | 8.0 | 0.00 | 0.00 | 0.00 | 79 | 1013.4 |
| 20260906050403 | 22 | 4 | 1.6 | 8.0 | 0.00 | 0.00 | 0.00 | 79 | 1013.6 |
| 20260906050303 | 22 | 4 | 1.6 | 8.0 | 0.00 | 0.00 | 0.00 | 79 | 1013.4 |
| 20260906050202 | 22 | 3 | 3.2 | 8.0 | 0.00 | 0.00 | 0.00 | 79 | 1013.3 |
| 20260906050004 | 22 | 17 | 4.8 | 8.0 | 0.00 | 0.00 | 0.00 | 79 | 1013.4 |
| 20260906045902 | 22 | 10 | 4.8 | 8.0 | 0.00 | 0.00 | 0.00 | 79 | 1013.4 |
| 20260906045802 | 22 | 16 | 4.8 | 8.0 | 0.00 | 0.00 | 0.00 | 79 | 1013.4 |
| 20260906045702 | 23 | 0 | 4.8 | 8.0 | 0.00 | 0.00 | 0.00 | 79 | 1013.4 |
| 20260906045602 | 23 | 0 | 4.8 | 8.0 | 0.00 | 0.00 | 0.00 | 79 | 1013.4 |
| 20260906045503 | 23 | 10 | 4.8 | 6.4 | 0.00 | 0.00 | 0.00 | 79 | 1013.4 |
| 20260906045402 | 23 | 347 | 4.8 | 8.0 | 0.00 | 0.00 | 0.00 | 79 | 1013.4 |
| 20260906045305 | 23 | 345 | 3.2 | 8.0 | 0.00 | 0.00 | 0.00 | 79 | 1013.4 |
| 20260906045202 | 23 | 20 | 3.2 | 8.0 | 0.00 | 0.00 | 0.00 | 79 | 1013.4 |
| 20260906045102 | 23 | 0 | 3.2 | 8.0 | 0.00 | 0.00 | 0.00 | 79 | 1013.4 |
| 20260906045002 | 23 | 0 | 4.8 | 8.0 | 0.00 | 0.00 | 0.00 | 79 | 1013.3 |
| 20260906044902 | 23 | 0 | 4.8 | 8.0 | 0.00 | 0.00 | 0.00 | 80 | 1013.3 |
| 20260906044802 | 23 | 20 | 3.2 | 8.0 | 0.00 | 0.00 | 0.00 | 80 | 1013.4 |
| 20260906044702 | 23 | 10 | 3.2 | 8.0 | 0.00 | 0.00 | 0.00 | 80 | 1013.3 |
| 20260906044603 | 23 | 10 | 4.8 | 8.0 | 0.00 | 0.00 | 0.00 | 80 | 1013.3 |
| 20260906044502 | 23 | 16 | 4.8 | 9.7 | 0.00 | 0.00 | 0.00 | 80 | 1013.3 |
| 20260906044403 | 23 | 25 | 3.2 | 9.7 | 0.00 | 0.00 | 0.00 | 80 | 1013.3 |
| 20260906044302 | 23 | 28 | 3.2 | 9.7 | 0.00 | 0.00 | 0.00 | 80 | 1013.3 |
| 20260906044202 | 23 | 13 | 3.2 | 9.7 | 0.00 | 0.00 | 0.00 | 80 | 1013.3 |
| 20260906044103 | 23 | 11 | 3.2 | 9.7 | 0.00 | 0.00 | 0.00 | 80 | 1013.3 |
| 20260906044003 | 23 | 11 | 4.8 | 9.7 | 0.00 | 0.00 | 0.00 | 80 | 1013.3 |
| 20260906043902 | 23 | 14 | 4.8 | 9.7 | 0.00 | 0.00 | 0.00 | 80 | 1013.3 |
| 20260906043803 | 23 | 0 | 4.8 | 9.7 | 0.00 | 0.00 | 0.00 | 80 | 1013.3 |
| 20260906043702 | 23 | 0 | 4.8 | 9.7 | 0.00 | 0.00 | 0.00 | 80 | 1013.3 |
| 20260906043602 | 23 | 1 | 4.8 | 9.7 | 0.00 | 0.00 | 0.00 | 80 | 1013.3 |
| 20260906043503 | 23 | 3 | 3.2 | 8.0 | 0.00 | 0.00 | 0.00 | 80 | 1013.3 |
| 20260906043402 | 23 | 0 | 3.2 | 8.0 | 0.00 | 0.00 | 0.00 | 80 | 1013.3 |
| 20260906043302 | 23 | 0 | 3.2 | 8.0 | 0.00 | 0.00 | 0.00 | 80 | 1013.3 |
| 20260906043202 | 23 | 347 | 3.2 | 8.0 | 0.00 | 0.00 | 0.00 | 80 | 1013.2 |
| 20260906043102 | 23 | 344 | 3.2 | 8.0 | 0.00 | 0.00 | 0.00 | 80 | 1013.2 |
| 20260906043003 | 23 | 358 | 3.2 | 8.0 | 0.00 | 0.00 | 0.00 | 80 | 1013.2 |
| 20260906042903 | 23 | 351 | 3.2 | 8.0 | 0.00 | 0.00 | 0.00 | 80 | 1013.2 |
| 20260906042802 | 23 | 351 | 1.6 | 8.0 | 0.00 | 0.00 | 0.00 | 80 | 1013.2 |
| 20260906042702 | 23 | 0 | 1.6 | 9.7 | 0.00 | 0.00 | 0.00 | 80 | 1013.2 |
| 20260906042602 | 23 | 358 | 1.6 | 9.7 | 0.00 | 0.00 | 0.00 | 80 | 1013.2 |
| 20260906042503 | 23 | 355 | 1.6 | 11.3 | 0.00 | 0.00 | 0.00 | 80 | 1013.1 |
| 20260906042402 | 23 | 355 | 1.6 | 11.3 | 0.00 | 0.00 | 0.00 | 80 | 1013.2 |
| 20260906042306 | 23 | 355 | 1.6 | 11.3 | 0.00 | 0.00 | 0.00 | 80 | 1013.2 |
| 20260906042202 | 23 | 357 | 4.8 | 11.3 | 0.00 | 0.00 | 0.00 | 80 | 1013.2 |
| 20260906042102 | 23 | 358 | 6.4 | 11.3 | 0.00 | 0.00 | 0.00 | 80 | 1013.2 |
| 20260906042002 | 23 | 357 | 4.8 | 14.5 | 0.00 | 0.00 | 0.00 | 80 | 1013.2 |
| 20260906041903 | 23 | 27 | 6.4 | 14.5 | 0.00 | 0.00 | 0.00 | 80 | 1013.2 |
| 20260906041802 | 23 | 27 | 6.4 | 14.5 | 0.00 | 0.00 | 0.00 | 80 | 1013.1 |
| 20260906041702 | 23 | 21 | 6.4 | 14.5 | 0.00 | 0.00 | 0.00 | 80 | 1013.1 |
| 20260906041621 | 23 | 3 | 4.8 | 14.5 | 0.00 | 0.00 | 0.00 | 80 | 1013.1 |
| 20260906041502 | 23 | 28 | 4.8 | 16.1 | 0.00 | 0.00 | 0.00 | 80 | 1013.1 |
| 20260906041403 | 23 | 7 | 6.4 | 16.1 | 0.00 | 0.00 | 0.00 | 80 | 1013.1 |
| 20260906041302 | 23 | 23 | 6.4 | 16.1 | 0.00 | 0.00 | 0.00 | 80 | 1013.1 |
| 20260906041202 | 23 | 0 | 6.4 | 16.1 | 0.00 | 0.00 | 0.00 | 80 | 1013.1 |
| 20260906041102 | 23 | 351 | 6.4 | 16.1 | 0.00 | 0.00 | 0.00 | 81 | 1013.0 |
| 20260906041002 | 23 | 28 | 4.8 | 16.1 | 0.00 | 0.00 | 0.00 | 81 | 1013.1 |
| 20260906040903 | 23 | 357 | 6.4 | 16.1 | 0.00 | 0.00 | 0.00 | 81 | 1013.1 |
| 20260906040802 | 23 | 30 | 8.0 | 16.1 | 0.00 | 0.00 | 0.00 | 81 | 1013.0 |
| 20260906040702 | 23 | 7 | 9.7 | 16.1 | 0.00 | 0.00 | 0.00 | 81 | 1013.0 |
| 20260906040602 | 23 | 6 | 8.0 | 16.1 | 0.00 | 0.00 | 0.00 | 81 | 1013.1 |
| 20260906040502 | 23 | 17 | 8.0 | 11.3 | 0.00 | 0.00 | 0.00 | 81 | 1013.0 |
| 20260906040402 | 23 | 0 | 6.4 | 11.3 | 0.00 | 0.00 | 0.00 | 81 | 1013.0 |
| 20260906040302 | 24 | 35 | 6.4 | 11.3 | 0.00 | 0.00 | 0.00 | 81 | 1013.0 |
| 20260906040202 | 24 | 21 | 6.4 | 11.3 | 0.00 | 0.00 | 0.00 | 81 | 1013.1 |
| 20260906040003 | 24 | 0 | 4.8 | 9.7 | 0.00 | 0.00 | 0.00 | 81 | 1013.1 |
| 20260906035902 | 24 | 31 | 4.8 | 9.7 | 0.00 | 0.00 | 0.00 | 81 | 1013.0 |
| 20260906035803 | 24 | 21 | 4.8 | 9.7 | 0.00 | 0.00 | 0.00 | 81 | 1013.1 |
| 20260906035703 | 24 | 20 | 4.8 | 9.7 | 0.00 | 0.00 | 0.00 | 81 | 1013.1 |
| 20260906035602 | 24 | 7 | 3.2 | 9.7 | 0.00 | 0.00 | 0.00 | 81 | 1013.0 |
| 20260906035501 | 24 | 34 | 3.2 | 9.7 | 0.00 | 0.00 | 0.00 | 81 | 1013.1 |
| 20260906035402 | 24 | 27 | 3.2 | 9.7 | 0.00 | 0.00 | 0.00 | 81 | 1013.1 |
| 20260906035305 | 24 | 30 | 4.8 | 11.3 | 0.00 | 0.00 | 0.00 | 81 | 1013.2 |
| 20260906035202 | 24 | 48 | 3.2 | 11.3 | 0.00 | 0.00 | 0.00 | 81 | 1013.2 |
| 20260906035102 | 24 | 0 | 3.2 | 11.3 | 0.00 | 0.00 | 0.00 | 81 | 1013.1 |
| 20260906035002 | 24 | 0 | 4.8 | 11.3 | 0.00 | 0.00 | 0.00 | 81 | 1013.2 |
| 20260906034902 | 24 | 0 | 6.4 | 11.3 | 0.00 | 0.00 | 0.00 | 81 | 1013.2 |
| 20260906034801 | 24 | 35 | 4.8 | 11.3 | 0.00 | 0.00 | 0.00 | 81 | 1013.1 |
| 20260906034702 | 24 | 18 | 3.2 | 11.3 | 0.00 | 0.00 | 0.00 | 81 | 1013.2 |
| 20260906034602 | 24 | 11 | 4.8 | 11.3 | 0.00 | 0.00 | 0.00 | 81 | 1013.1 |
| 20260906034502 | 24 | 3 | 6.4 | 11.3 | 0.00 | 0.00 | 0.00 | 81 | 1013.1 |
| 20260906034403 | 24 | 358 | 6.4 | 11.3 | 0.00 | 0.00 | 0.00 | 81 | 1013.1 |
| 20260906034302 | 24 | 0 | 6.4 | 11.3 | 0.00 | 0.00 | 0.00 | 81 | 1013.0 |
| 20260906034202 | 24 | 0 | 8.0 | 11.3 | 0.00 | 0.00 | 0.00 | 81 | 1013.0 |
| 20260906034102 | 24 | 4 | 6.4 | 11.3 | 0.00 | 0.00 | 0.00 | 81 | 1013.0 |
| 20260906034003 | 24 | 0 | 6.4 | 11.3 | 0.00 | 0.00 | 0.00 | 81 | 1013.0 |
| 20260906033902 | 24 | 0 | 6.4 | 11.3 | 0.00 | 0.00 | 0.00 | 81 | 1013.1 |
| 20260906033802 | 24 | 13 | 6.4 | 14.5 | 0.00 | 0.00 | 0.00 | 81 | 1013.1 |
| 20260906033702 | 25 | 357 | 6.4 | 14.5 | 0.00 | 0.00 | 0.00 | 81 | 1013.0 |
| 20260906033602 | 25 | 0 | 6.4 | 14.5 | 0.00 | 0.00 | 0.00 | 81 | 1013.0 |
| 20260906033503 | 25 | 4 | 4.8 | 14.5 | 0.00 | 0.00 | 0.00 | 81 | 1013.0 |
| 20260906033402 | 25 | 7 | 4.8 | 14.5 | 0.00 | 0.00 | 0.00 | 81 | 1013.0 |
| 20260906033303 | 25 | 8 | 6.4 | 14.5 | 0.00 | 0.00 | 0.00 | 81 | 1013.0 |
| 20260906033202 | 25 | 1 | 6.4 | 14.5 | 0.00 | 0.00 | 0.00 | 81 | 1013.0 |
| 20260906033102 | 25 | 18 | 6.4 | 14.5 | 0.00 | 0.00 | 0.00 | 81 | 1013.0 |
| 20260906033003 | 25 | 0 | 6.4 | 14.5 | 0.00 | 0.00 | 0.00 | 81 | 1013.0 |
| 20260906032902 | 25 | 20 | 8.0 | 14.5 | 0.00 | 0.00 | 0.00 | 81 | 1013.1 |
| 20260906032802 | 25 | 0 | 8.0 | 14.5 | 0.00 | 0.00 | 0.00 | 81 | 1013.0 |
| 20260906032703 | 25 | 0 | 6.4 | 14.5 | 0.00 | 0.00 | 0.00 | 81 | 1013.0 |
| 20260906032602 | 25 | 0 | 4.8 | 14.5 | 0.00 | 0.00 | 0.00 | 81 | 1013.0 |
| 20260906032502 | 25 | 20 | 6.4 | 16.1 | 0.00 | 0.00 | 0.00 | 81 | 1013.0 |
| 20260906032402 | 25 | 4 | 6.4 | 19.3 | 0.00 | 0.00 | 0.00 | 81 | 1013.0 |
| 20260906032305 | 25 | 61 | 6.4 | 19.3 | 0.00 | 0.00 | 0.00 | 81 | 1013.1 |
| 20260906032202 | 25 | 65 | 6.4 | 19.3 | 0.00 | 0.00 | 0.00 | 81 | 1012.9 |
| 20260906032102 | 25 | 41 | 8.0 | 19.3 | 0.00 | 0.00 | 0.00 | 81 | 1013.0 |
| 20260906032003 | 25 | 4 | 9.7 | 19.3 | 0.00 | 0.00 | 0.00 | 81 | 1012.9 |
| 20260906031902 | 25 | 28 | 6.4 | 19.3 | 0.00 | 0.00 | 0.00 | 81 | 1012.9 |
| 20260906031802 | 25 | 11 | 6.4 | 19.3 | 0.00 | 0.00 | 0.00 | 81 | 1013.0 |
| 20260906031703 | 25 | 4 | 8.0 | 19.3 | 0.00 | 0.00 | 0.00 | 81 | 1012.9 |
| 20260906031603 | 25 | 7 | 11.3 | 19.3 | 0.00 | 0.00 | 0.00 | 81 | 1012.9 |
| 20260906031503 | 25 | 3 | 11.3 | 19.3 | 0.00 | 0.00 | 0.00 | 81 | 1012.9 |
| 20260906031402 | 25 | 11 | 9.7 | 17.7 | 0.00 | 0.00 | 0.00 | 81 | 1012.9 |
| 20260906031302 | 25 | 8 | 9.7 | 17.7 | 0.00 | 0.00 | 0.00 | 81 | 1012.9 |
| 20260906031202 | 25 | 343 | 9.7 | 17.7 | 0.00 | 0.00 | 0.00 | 81 | 1012.9 |
| 20260906031102 | 25 | 14 | 9.7 | 17.7 | 0.00 | 0.00 | 0.00 | 81 | 1012.9 |
| 20260906031002 | 25 | 18 | 9.7 | 17.7 | 0.00 | 0.00 | 0.00 | 81 | 1012.9 |
| 20260906030902 | 25 | 45 | 6.4 | 17.7 | 0.00 | 0.00 | 0.00 | 81 | 1013.0 |
| 20260906030802 | 25 | 0 | 8.0 | 17.7 | 0.00 | 0.00 | 0.00 | 81 | 1013.0 |
| 20260906030703 | 25 | 340 | 11.3 | 17.7 | 0.00 | 0.00 | 0.00 | 81 | 1012.9 |
| 20260906030603 | 25 | 0 | 8.0 | 14.5 | 0.00 | 0.00 | 0.00 | 81 | 1012.9 |
| 20260906030501 | 25 | 7 | 6.4 | 14.5 | 0.00 | 0.00 | 0.00 | 81 | 1012.9 |
| 20260906030402 | 25 | 13 | 8.0 | 14.5 | 0.00 | 0.00 | 0.00 | 81 | 1012.9 |
| 20260906030302 | 25 | 331 | 9.7 | 14.5 | 0.00 | 0.00 | 0.00 | 81 | 1012.9 |
| 20260906030202 | 25 | 21 | 8.0 | 14.5 | 0.00 | 0.00 | 0.00 | 81 | 1012.9 |
| 20260906030002 | 25 | 357 | 6.4 | 16.1 | 0.00 | 0.00 | 0.00 | 81 | 1012.8 |
| 20260906025902 | 25 | 0 | 6.4 | 16.1 | 0.00 | 0.00 | 0.00 | 81 | 1012.9 |
| 20260906025802 | 26 | 0 | 6.4 | 19.3 | 0.00 | 0.00 | 0.00 | 81 | 1012.9 |
| 20260906025702 | 26 | 24 | 8.0 | 19.3 | 0.00 | 0.00 | 0.00 | 80 | 1012.9 |
| 20260906025602 | 26 | 357 | 8.0 | 19.3 | 0.00 | 0.00 | 0.00 | 80 | 1012.9 |
| 20260906025502 | 26 | 17 | 8.0 | 19.3 | 0.00 | 0.00 | 0.00 | 80 | 1013.0 |
| 20260906025402 | 26 | 0 | 8.0 | 19.3 | 0.00 | 0.00 | 0.00 | 80 | 1012.9 |
| 20260906025306 | 26 | 41 | 8.0 | 19.3 | 0.00 | 0.00 | 0.00 | 80 | 1012.8 |
| 20260906025202 | 26 | 24 | 9.7 | 19.3 | 0.00 | 0.00 | 0.00 | 80 | 1012.9 |
| 20260906025102 | 26 | 0 | 9.7 | 19.3 | 0.00 | 0.00 | 0.00 | 80 | 1012.9 |
| 20260906025003 | 26 | 0 | 11.3 | 19.3 | 0.00 | 0.00 | 0.00 | 80 | 1012.9 |
| 20260906024902 | 26 | 44 | 11.3 | 19.3 | 0.00 | 0.00 | 0.00 | 80 | 1012.9 |
| 20260906024802 | 26 | 0 | 9.7 | 16.1 | 0.00 | 0.00 | 0.00 | 80 | 1012.9 |
| 20260906024701 | 26 | 10 | 9.7 | 16.1 | 0.00 | 0.00 | 0.00 | 80 | 1012.8 |
| 20260906024602 | 26 | 0 | 9.7 | 16.1 | 0.00 | 0.00 | 0.00 | 80 | 1012.8 |
| 20260906024502 | 26 | 351 | 9.7 | 16.1 | 0.00 | 0.00 | 0.00 | 80 | 1012.8 |
| 20260906024403 | 26 | 330 | 9.7 | 16.1 | 0.00 | 0.00 | 0.00 | 80 | 1012.8 |
| 20260906024302 | 26 | 8 | 9.7 | 16.1 | 0.00 | 0.00 | 0.00 | 80 | 1012.8 |
| 20260906024203 | 26 | 10 | 8.0 | 16.1 | 0.00 | 0.00 | 0.00 | 80 | 1012.7 |
| 20260906024102 | 26 | 14 | 4.8 | 16.1 | 0.00 | 0.00 | 0.00 | 80 | 1012.7 |
| 20260906024003 | 26 | 0 | 6.4 | 16.1 | 0.00 | 0.00 | 0.00 | 79 | 1012.7 |
| 20260906023902 | 26 | 3 | 8.0 | 16.1 | 0.00 | 0.00 | 0.00 | 79 | 1012.7 |
| 20260906023802 | 26 | 11 | 8.0 | 16.1 | 0.00 | 0.00 | 0.00 | 79 | 1012.7 |
| 20260906023702 | 26 | 16 | 6.4 | 14.5 | 0.00 | 0.00 | 0.00 | 79 | 1012.7 |
| 20260906023602 | 26 | 34 | 8.0 | 14.5 | 0.00 | 0.00 | 0.00 | 79 | 1012.7 |
| 20260906023502 | 26 | 0 | 8.0 | 14.5 | 0.00 | 0.00 | 0.00 | 79 | 1012.7 |
| 20260906023402 | 26 | 0 | 8.0 | 14.5 | 0.00 | 0.00 | 0.00 | 79 | 1012.7 |
| 20260906023302 | 26 | 0 | 6.4 | 14.5 | 0.00 | 0.00 | 0.00 | 79 | 1012.6 |
| 20260906023202 | 26 | 0 | 8.0 | 14.5 | 0.00 | 0.00 | 0.00 | 79 | 1012.6 |
| 20260906023101 | 26 | 28 | 8.0 | 19.3 | 0.00 | 0.00 | 0.00 | 79 | 1012.6 |
| 20260906023002 | 26 | 28 | 9.7 | 20.9 | 0.00 | 0.00 | 0.00 | 79 | 1012.6 |
| 20260906022902 | 26 | 37 | 9.7 | 20.9 | 0.00 | 0.00 | 0.00 | 78 | 1012.6 |
| 20260906022802 | 26 | 8 | 6.4 | 20.9 | 0.00 | 0.00 | 0.00 | 78 | 1012.6 |
| 20260906022702 | 26 | 6 | 8.0 | 20.9 | 0.00 | 0.00 | 0.00 | 78 | 1012.6 |
| 20260906022603 | 26 | 14 | 9.7 | 20.9 | 0.00 | 0.00 | 0.00 | 78 | 1012.6 |
| 20260906022502 | 26 | 0 | 8.0 | 20.9 | 0.00 | 0.00 | 0.00 | 78 | 1012.6 |
| 20260906022402 | 26 | 13 | 8.0 | 20.9 | 0.00 | 0.00 | 0.00 | 78 | 1012.5 |
| 20260906022306 | 26 | 34 | 9.7 | 22.5 | 0.00 | 0.00 | 0.00 | 78 | 1012.5 |
| 20260906022203 | 26 | 41 | 9.7 | 22.5 | 0.00 | 0.00 | 0.00 | 78 | 1012.5 |
| 20260906022103 | 26 | 28 | 11.3 | 22.5 | 0.00 | 0.00 | 0.00 | 78 | 1012.5 |
| 20260906022003 | 26 | 27 | 11.3 | 22.5 | 0.00 | 0.00 | 0.00 | 78 | 1012.4 |
| 20260906021902 | 26 | 0 | 9.7 | 22.5 | 0.00 | 0.00 | 0.00 | 78 | 1012.5 |
| 20260906021802 | 27 | 11 | 8.0 | 22.5 | 0.00 | 0.00 | 0.00 | 78 | 1012.4 |
| 20260906021702 | 27 | 11 | 9.7 | 22.5 | 0.00 | 0.00 | 0.00 | 78 | 1012.4 |
| 20260906021602 | 27 | 0 | 11.3 | 22.5 | 0.00 | 0.00 | 0.00 | 78 | 1012.4 |
| 20260906021503 | 27 | 336 | 12.9 | 22.5 | 0.00 | 0.00 | 0.00 | 77 | 1012.3 |
| 20260906021402 | 27 | 16 | 9.7 | 22.5 | 0.00 | 0.00 | 0.00 | 77 | 1012.3 |
| 20260906021302 | 27 | 0 | 6.4 | 19.3 | 0.00 | 0.00 | 0.00 | 77 | 1012.3 |
| 20260906021202 | 27 | 0 | 8.0 | 19.3 | 0.00 | 0.00 | 0.00 | 77 | 1012.3 |
| 20260906021102 | 27 | 0 | 9.7 | 19.3 | 0.00 | 0.00 | 0.00 | 77 | 1012.3 |
| 20260906021003 | 27 | 38 | 8.0 | 19.3 | 0.00 | 0.00 | 0.00 | 77 | 1012.3 |
| 20260906020902 | 27 | 31 | 8.0 | 19.3 | 0.00 | 0.00 | 0.00 | 77 | 1012.3 |
| 20260906020802 | 27 | 0 | 8.0 | 19.3 | 0.00 | 0.00 | 0.00 | 77 | 1012.4 |
| 20260906020702 | 27 | 10 | 9.7 | 19.3 | 0.00 | 0.00 | 0.00 | 77 | 1012.2 |
| 20260906020602 | 27 | 0 | 9.7 | 19.3 | 0.00 | 0.00 | 0.00 | 77 | 1012.2 |
| 20260906020502 | 27 | 357 | 8.0 | 16.1 | 0.00 | 0.00 | 0.00 | 77 | 1012.2 |
| 20260906020403 | 27 | 0 | 8.0 | 16.1 | 0.00 | 0.00 | 0.00 | 77 | 1012.2 |
| 20260906020302 | 27 | 13 | 9.7 | 16.1 | 0.00 | 0.00 | 0.00 | 77 | 1012.1 |
| 20260906020202 | 27 | 0 | 9.7 | 16.1 | 0.00 | 0.00 | 0.00 | 77 | 1012.1 |
| 20260906020002 | 27 | 0 | 9.7 | 16.1 | 0.00 | 0.00 | 0.00 | 77 | 1012.1 |
| 20260906015902 | 27 | 0 | 8.0 | 16.1 | 0.00 | 0.00 | 0.00 | 77 | 1012.0 |
| 20260906015802 | 27 | 0 | 8.0 | 16.1 | 0.00 | 0.00 | 0.00 | 77 | 1012.1 |
| 20260906015702 | 27 | 4 | 9.7 | 16.1 | 0.00 | 0.00 | 0.00 | 76 | 1012.1 |
| 20260906015602 | 27 | 340 | 9.7 | 16.1 | 0.00 | 0.00 | 0.00 | 77 | 1012.1 |
| 20260906015503 | 27 | 357 | 9.7 | 19.3 | 0.00 | 0.00 | 0.00 | 76 | 1012.0 |
| 20260906015402 | 27 | 38 | 9.7 | 19.3 | 0.00 | 0.00 | 0.00 | 76 | 1012.1 |
| 20260906015305 | 27 | 344 | 8.0 | 19.3 | 0.00 | 0.00 | 0.00 | 77 | 1012.0 |
| 20260906015202 | 27 | 20 | 6.4 | 19.3 | 0.00 | 0.00 | 0.00 | 77 | 1012.0 |
| 20260906015102 | 27 | 14 | 8.0 | 19.3 | 0.00 | 0.00 | 0.00 | 76 | 1012.1 |
| 20260906015003 | 27 | 47 | 6.4 | 19.3 | 0.00 | 0.00 | 0.00 | 77 | 1012.1 |
| 20260906014902 | 27 | 357 | 6.4 | 19.3 | 0.00 | 0.00 | 0.00 | 76 | 1012.1 |
| 20260906014802 | 27 | 13 | 8.0 | 19.3 | 0.00 | 0.00 | 0.00 | 76 | 1012.0 |
| 20260906014703 | 27 | 357 | 11.3 | 19.3 | 0.00 | 0.00 | 0.00 | 76 | 1012.1 |
| 20260906014603 | 27 | 13 | 9.7 | 20.9 | 0.00 | 0.00 | 0.00 | 76 | 1012.0 |
| 20260906014501 | 27 | 0 | 8.0 | 20.9 | 0.00 | 0.00 | 0.00 | 77 | 1012.0 |
| 20260906014403 | 27 | 17 | 11.3 | 20.9 | 0.00 | 0.00 | 0.00 | 77 | 1012.0 |
| 20260906014302 | 27 | 7 | 9.7 | 20.9 | 0.00 | 0.00 | 0.00 | 76 | 1012.1 |
| 20260906014203 | 27 | 323 | 9.7 | 20.9 | 0.00 | 0.00 | 0.00 | 76 | 1012.0 |
| 20260906014102 | 27 | 343 | 11.3 | 20.9 | 0.00 | 0.00 | 0.00 | 76 | 1012.0 |
| 20260906014002 | 27 | 14 | 12.9 | 20.9 | 0.00 | 0.00 | 0.00 | 76 | 1012.0 |
| 20260906013903 | 27 | 32 | 12.9 | 20.9 | 0.00 | 0.00 | 0.00 | 76 | 1011.9 |
| 20260906013802 | 27 | 350 | 12.9 | 20.9 | 0.00 | 0.00 | 0.00 | 76 | 1012.0 |
| 20260906013702 | 27 | 21 | 11.3 | 20.9 | 0.00 | 0.00 | 0.00 | 77 | 1011.9 |
| 20260906013602 | 27 | 8 | 8.0 | 19.3 | 0.00 | 0.00 | 0.00 | 77 | 1011.9 |
| 20260906013502 | 27 | 23 | 8.0 | 19.3 | 0.00 | 0.00 | 0.00 | 76 | 1011.9 |
| 20260906013402 | 27 | 6 | 9.7 | 19.3 | 0.00 | 0.00 | 0.00 | 76 | 1011.9 |
| 20260906013302 | 27 | 23 | 11.3 | 19.3 | 0.00 | 0.00 | 0.00 | 76 | 1011.9 |
| 20260906013202 | 27 | 351 | 11.3 | 24.1 | 0.00 | 0.00 | 0.00 | 76 | 1012.0 |
| 20260906013102 | 27 | 331 | 8.0 | 24.1 | 0.00 | 0.00 | 0.00 | 76 | 1011.9 |
| 20260906013003 | 28 | 6 | 6.4 | 24.1 | 0.00 | 0.00 | 0.00 | 76 | 1011.9 |
| 20260906012902 | 28 | 0 | 9.7 | 24.1 | 0.00 | 0.00 | 0.00 | 76 | 1011.9 |
| 20260906012801 | 28 | 0 | 11.3 | 24.1 | 0.00 | 0.00 | 0.00 | 76 | 1011.9 |
| 20260906012702 | 28 | 0 | 9.7 | 24.1 | 0.00 | 0.00 | 0.00 | 76 | 1011.9 |
| 20260906012602 | 28 | 13 | 8.0 | 24.1 | 0.00 | 0.00 | 0.00 | 76 | 1011.9 |
| 20260906012503 | 28 | 345 | 8.0 | 24.1 | 0.00 | 0.00 | 0.00 | 76 | 1011.9 |
| 20260906012402 | 28 | 39 | 11.3 | 24.1 | 0.00 | 0.00 | 0.00 | 76 | 1011.9 |
| 20260906012305 | 28 | 24 | 12.9 | 24.1 | 0.00 | 0.00 | 0.00 | 76 | 1011.9 |
| 20260906012202 | 28 | 14 | 9.7 | 20.9 | 0.00 | 0.00 | 0.00 | 76 | 1011.8 |
| 20260906012103 | 28 | 20 | 9.7 | 20.9 | 0.00 | 0.00 | 0.00 | 76 | 1011.7 |
| 20260906012003 | 28 | 30 | 9.7 | 20.9 | 0.00 | 0.00 | 0.00 | 76 | 1011.8 |
| 20260906011902 | 28 | 336 | 9.7 | 20.9 | 0.00 | 0.00 | 0.00 | 76 | 1011.7 |
| 20260906011802 | 28 | 0 | 9.7 | 20.9 | 0.00 | 0.00 | 0.00 | 76 | 1011.7 |
| 20260906011702 | 28 | 30 | 9.7 | 20.9 | 0.00 | 0.00 | 0.00 | 76 | 1011.7 |
| 20260906011602 | 28 | 1 | 6.4 | 17.7 | 0.00 | 0.00 | 0.00 | 76 | 1011.6 |
| 20260906011503 | 28 | 7 | 6.4 | 17.7 | 0.00 | 0.00 | 0.00 | 76 | 1011.7 |
| 20260906011402 | 28 | 31 | 8.0 | 17.7 | 0.00 | 0.00 | 0.00 | 76 | 1011.7 |
| 20260906011303 | 28 | 44 | 9.7 | 17.7 | 0.00 | 0.00 | 0.00 | 76 | 1011.6 |
| 20260906011202 | 28 | 0 | 6.4 | 17.7 | 0.00 | 0.00 | 0.00 | 76 | 1011.6 |
| 20260906011102 | 28 | 6 | 6.4 | 17.7 | 0.00 | 0.00 | 0.00 | 76 | 1011.6 |
| 20260906011002 | 28 | 21 | 9.7 | 17.7 | 0.00 | 0.00 | 0.00 | 76 | 1011.5 |
| 20260906010902 | 28 | 13 | 11.3 | 17.7 | 0.00 | 0.00 | 0.00 | 75 | 1011.5 |
| 20260906010803 | 28 | 0 | 9.7 | 17.7 | 0.00 | 0.00 | 0.00 | 75 | 1011.5 |
| 20260906010702 | 28 | 32 | 9.7 | 17.7 | 0.00 | 0.00 | 0.00 | 75 | 1011.6 |
| 20260906010602 | 28 | 21 | 9.7 | 17.7 | 0.00 | 0.00 | 0.00 | 75 | 1011.5 |
| 20260906010503 | 28 | 17 | 6.4 | 17.7 | 0.00 | 0.00 | 0.00 | 75 | 1011.5 |
| 20260906010403 | 28 | 6 | 6.4 | 17.7 | 0.00 | 0.00 | 0.00 | 75 | 1011.5 |
| 20260906010302 | 28 | 17 | 8.0 | 20.9 | 0.00 | 0.00 | 0.00 | 75 | 1011.5 |
| 20260906010202 | 28 | 39 | 9.7 | 20.9 | 0.00 | 0.00 | 0.00 | 75 | 1011.5 |
| 20260906010002 | 28 | 21 | 11.3 | 20.9 | 0.00 | 0.00 | 0.00 | 75 | 1011.5 |
| 20260906005902 | 28 | 25 | 11.3 | 20.9 | 0.00 | 0.00 | 0.00 | 75 | 1011.5 |
| 20260906005803 | 28 | 7 | 9.7 | 20.9 | 0.00 | 0.00 | 0.00 | 75 | 1011.5 |
| 20260906005703 | 28 | 7 | 6.4 | 20.9 | 0.00 | 0.00 | 0.00 | 75 | 1011.5 |
| 20260906005602 | 28 | 41 | 9.7 | 20.9 | 0.00 | 0.00 | 0.00 | 75 | 1011.5 |
| 20260906005502 | 28 | 48 | 14.5 | 20.9 | 0.00 | 0.00 | 0.00 | 75 | 1011.5 |
| 20260906005402 | 28 | 357 | 14.5 | 20.9 | 0.00 | 0.00 | 0.00 | 75 | 1011.5 |
| 20260906005306 | 29 | 4 | 11.3 | 22.5 | 0.00 | 0.00 | 0.00 | 75 | 1011.5 |
| 20260906005201 | 29 | 14 | 9.7 | 22.5 | 0.00 | 0.00 | 0.00 | 75 | 1011.5 |
| 20260906005102 | 29 | 32 | 9.7 | 22.5 | 0.00 | 0.00 | 0.00 | 75 | 1011.4 |
| 20260906005002 | 29 | 28 | 11.3 | 22.5 | 0.00 | 0.00 | 0.00 | 75 | 1011.5 |
| 20260906004902 | 29 | 0 | 11.3 | 22.5 | 0.00 | 0.00 | 0.00 | 74 | 1011.5 |
| 20260906004802 | 29 | 0 | 12.9 | 22.5 | 0.00 | 0.00 | 0.00 | 74 | 1011.4 |
| 20260906004702 | 29 | 0 | 11.3 | 22.5 | 0.00 | 0.00 | 0.00 | 74 | 1011.4 |
| 20260906004602 | 29 | 0 | 12.9 | 22.5 | 0.00 | 0.00 | 0.00 | 74 | 1011.3 |
| 20260906004502 | 29 | 39 | 12.9 | 22.5 | 0.00 | 0.00 | 0.00 | 75 | 1011.3 |
| 20260906004404 | 29 | 11 | 11.3 | 22.5 | 0.00 | 0.00 | 0.00 | 75 | 1011.3 |
| 20260906004302 | 29 | 25 | 12.9 | 22.5 | 0.00 | 0.00 | 0.00 | 75 | 1011.3 |
| 20260906004202 | 29 | 0 | 14.5 | 22.5 | 0.00 | 0.00 | 0.00 | 75 | 1011.2 |
| 20260906004102 | 29 | 0 | 14.5 | 22.5 | 0.00 | 0.00 | 0.00 | 75 | 1011.2 |
| 20260906004002 | 30 | 0 | 12.9 | 22.5 | 0.00 | 0.00 | 0.00 | 76 | 1011.2 |
| 20260906003902 | 30 | 0 | 11.3 | 17.7 | 0.00 | 0.00 | 0.00 | 76 | 1011.2 |
| 20260906003802 | 30 | 288 | 11.3 | 17.7 | 0.00 | 0.00 | 0.00 | 76 | 1011.2 |
| 20260906003702 | 30 | 25 | 9.7 | 17.7 | 0.00 | 0.00 | 0.00 | 76 | 1011.2 |
| 20260906003602 | 30 | 317 | 9.7 | 20.9 | 0.00 | 0.00 | 0.00 | 76 | 1011.1 |
| 20260906003503 | 30 | 3 | 9.7 | 20.9 | 0.00 | 0.00 | 0.00 | 76 | 1011.2 |
| 20260906003402 | 30 | 4 | 8.0 | 20.9 | 0.00 | 0.00 | 0.00 | 75 | 1011.1 |
| 20260906003302 | 30 | 8 | 8.0 | 20.9 | 0.00 | 0.00 | 0.00 | 75 | 1011.1 |
| 20260906003203 | 30 | 0 | 8.0 | 20.9 | 0.00 | 0.00 | 0.00 | 75 | 1011.1 |
| 20260906003102 | 30 | 348 | 9.7 | 20.9 | 0.00 | 0.00 | 0.00 | 75 | 1011.1 |
| 20260906003002 | 30 | 0 | 9.7 | 20.9 | 0.00 | 0.00 | 0.00 | 75 | 1011.0 |
| 20260906002902 | 30 | 7 | 9.7 | 20.9 | 0.00 | 0.00 | 0.00 | 75 | 1011.0 |
| 20260906002803 | 30 | 0 | 12.9 | 20.9 | 0.00 | 0.00 | 0.00 | 74 | 1011.1 |
| 20260906002703 | 30 | 324 | 11.3 | 20.9 | 0.00 | 0.00 | 0.00 | 74 | 1011.1 |
| 20260906002602 | 30 | 341 | 11.3 | 19.3 | 0.00 | 0.00 | 0.00 | 74 | 1011.0 |
| 20260906002502 | 30 | 355 | 12.9 | 19.3 | 0.00 | 0.00 | 0.00 | 74 | 1010.9 |
| 20260906002402 | 30 | 0 | 11.3 | 17.7 | 0.00 | 0.00 | 0.00 | 74 | 1011.0 |
| 20260906002305 | 30 | 0 | 11.3 | 17.7 | 0.00 | 0.00 | 0.00 | 74 | 1011.0 |
| 20260906002202 | 30 | 18 | 9.7 | 17.7 | 0.00 | 0.00 | 0.00 | 73 | 1010.9 |
| 20260906002102 | 30 | 23 | 9.7 | 17.7 | 0.00 | 0.00 | 0.00 | 73 | 1010.9 |
| 20260906002002 | 30 | 1 | 9.7 | 17.7 | 0.00 | 0.00 | 0.00 | 73 | 1011.0 |
| 20260906001902 | 30 | 345 | 8.0 | 11.3 | 0.00 | 0.00 | 0.00 | 73 | 1011.0 |
| 20260906001802 | 30 | 357 | 4.8 | 9.7 | 0.00 | 0.00 | 0.00 | 73 | 1011.0 |
| 20260906001703 | 30 | 331 | 4.8 | 9.7 | 0.00 | 0.00 | 0.00 | 73 | 1011.0 |
| 20260906001603 | 30 | 0 | 4.8 | 9.7 | 0.00 | 0.00 | 0.00 | 73 | 1011.0 |
| 20260906001503 | 30 | 358 | 4.8 | 9.7 | 0.00 | 0.00 | 0.00 | 73 | 1011.0 |
| 20260906001402 | 30 | 0 | 4.8 | 9.7 | 0.00 | 0.00 | 0.00 | 72 | 1010.9 |
| 20260906001302 | 30 | 3 | 6.4 | 9.7 | 0.00 | 0.00 | 0.00 | 72 | 1010.9 |
| 20260906001202 | 31 | 0 | 6.4 | 9.7 | 0.00 | 0.00 | 0.00 | 72 | 1010.9 |
| 20260906001102 | 31 | 1 | 4.8 | 9.7 | 0.00 | 0.00 | 0.00 | 72 | 1010.9 |
| 20260906001003 | 31 | 0 | 4.8 | 9.7 | 0.00 | 0.00 | 0.00 | 72 | 1010.9 |
| 20260906000902 | 31 | 0 | 6.4 | 9.7 | 0.00 | 0.00 | 0.00 | 72 | 1010.9 |
| 20260906000803 | 31 | 0 | 6.4 | 16.1 | 0.00 | 0.00 | 0.00 | 72 | 1010.9 |
| 20260906000703 | 31 | 0 | 3.2 | 16.1 | 0.00 | 0.00 | 0.00 | 72 | 1011.0 |
| 20260906000602 | 31 | 0 | 4.8 | 16.1 | 0.00 | 0.00 | 0.00 | 72 | 1011.0 |
| 20260906000503 | 31 | 0 | 6.4 | 16.1 | 0.00 | 0.00 | 0.00 | 72 | 1011.0 |
| 20260906000403 | 31 | 334 | 6.4 | 16.1 | 0.00 | 0.00 | 0.00 | 71 | 1010.9 |
| 20260906000303 | 31 | 0 | 6.4 | 16.1 | 0.00 | 0.00 | 0.00 | 71 | 1011.0 |
| 20260906000204 | 31 | 351 | 6.4 | 16.1 | 0.00 | 0.00 | 0.00 | 71 | 1011.0 |
| 20260906000003 | 31 | 17 | 8.0 | 16.1 | 0.00 | 0.00 | 0.00 | 71 | 1011.0 |
| 20260905235902 | 31 | 0 | 6.4 | 16.1 | 0.00 | 0.00 | 0.00 | 71 | 1010.9 |
| 20260905235802 | 31 | 3 | 4.8 | 8.0 | 0.00 | 0.00 | 0.00 | 71 | 1011.0 |
| 20260905235702 | 31 | 357 | 4.8 | 8.0 | 0.00 | 0.00 | 0.00 | 71 | 1011.0 |
| 20260905235602 | 31 | 8 | 4.8 | 8.0 | 0.00 | 0.00 | 0.00 | 71 | 1010.9 |
| 20260905235503 | 31 | 336 | 3.2 | 8.0 | 0.00 | 0.00 | 0.00 | 71 | 1010.9 |
| 20260905235402 | 31 | 338 | 3.2 | 9.7 | 0.00 | 0.00 | 0.00 | 71 | 1010.9 |
| 20260905235306 | 31 | 0 | 3.2 | 9.7 | 0.00 | 0.00 | 0.00 | 71 | 1010.9 |
| 20260905235202 | 31 | 331 | 4.8 | 9.7 | 0.00 | 0.00 | 0.00 | 71 | 1010.8 |
| 20260905235103 | 31 | 330 | 4.8 | 9.7 | 0.00 | 0.00 | 0.00 | 71 | 1010.9 |
| 20260905235002 | 31 | 344 | 4.8 | 11.3 | 0.00 | 0.00 | 0.00 | 71 | 1010.9 |
| 20260905234902 | 31 | 347 | 4.8 | 11.3 | 0.00 | 0.00 | 0.00 | 70 | 1010.9 |
| 20260905234802 | 31 | 340 | 6.4 | 11.3 | 0.00 | 0.00 | 0.00 | 70 | 1010.9 |
| 20260905234702 | 31 | 1 | 4.8 | 11.3 | 0.00 | 0.00 | 0.00 | 70 | 1010.9 |
| 20260905234602 | 31 | 350 | 4.8 | 11.3 | 0.00 | 0.00 | 0.00 | 70 | 1010.9 |
| 20260905234502 | 31 | 348 | 6.4 | 16.1 | 0.00 | 0.00 | 0.00 | 70 | 1010.9 |
| 20260905234404 | 31 | 341 | 4.8 | 16.1 | 0.00 | 0.00 | 0.00 | 70 | 1010.9 |
| 20260905234303 | 31 | 334 | 6.4 | 16.1 | 0.00 | 0.00 | 0.00 | 70 | 1010.9 |
| 20260905234201 | 31 | 345 | 8.0 | 16.1 | 0.00 | 0.00 | 0.00 | 69 | 1010.9 |
| 20260905234102 | 31 | 338 | 8.0 | 16.1 | 0.00 | 0.00 | 0.00 | 69 | 1010.9 |
| 20260905234002 | 31 | 329 | 6.4 | 16.1 | 0.00 | 0.00 | 0.00 | 69 | 1010.9 |
| 20260905233902 | 31 | 357 | 4.8 | 16.1 | 0.00 | 0.00 | 0.00 | 69 | 1010.8 |
| 20260905233802 | 32 | 329 | 4.8 | 16.1 | 0.00 | 0.00 | 0.00 | 68 | 1010.8 |
| 20260905233702 | 32 | 338 | 6.4 | 16.1 | 0.00 | 0.00 | 0.00 | 68 | 1010.8 |
| 20260905233603 | 32 | 0 | 6.4 | 16.1 | 0.00 | 0.00 | 0.00 | 68 | 1010.7 |
| 20260905233503 | 32 | 327 | 4.8 | 11.3 | 0.00 | 0.00 | 0.00 | 68 | 1010.7 |
| 20260905233402 | 32 | 350 | 6.4 | 11.3 | 0.00 | 0.00 | 0.00 | 68 | 1010.8 |
| 20260905233302 | 32 | 7 | 4.8 | 16.1 | 0.00 | 0.00 | 0.00 | 68 | 1010.7 |
| 20260905233202 | 32 | 314 | 6.4 | 16.1 | 0.00 | 0.00 | 0.00 | 68 | 1010.7 |
| 20260905233102 | 32 | 0 | 6.4 | 16.1 | 0.00 | 0.00 | 0.00 | 68 | 1010.7 |
| 20260905233003 | 32 | 326 | 6.4 | 16.1 | 0.00 | 0.00 | 0.00 | 67 | 1010.7 |
| 20260905232902 | 32 | 337 | 6.4 | 16.1 | 0.00 | 0.00 | 0.00 | 67 | 1010.6 |
| 20260905232802 | 32 | 351 | 6.4 | 16.1 | 0.00 | 0.00 | 0.00 | 67 | 1010.7 |
| 20260905232703 | 32 | 6 | 6.4 | 16.1 | 0.00 | 0.00 | 0.00 | 67 | 1010.7 |
| 20260905232602 | 32 | 343 | 8.0 | 16.1 | 0.00 | 0.00 | 0.00 | 67 | 1010.7 |
| 20260905232502 | 32 | 324 | 8.0 | 16.1 | 0.00 | 0.00 | 0.00 | 67 | 1010.7 |
| 20260905232402 | 32 | 340 | 8.0 | 16.1 | 0.00 | 0.00 | 0.00 | 67 | 1010.7 |
| 20260905232305 | 32 | 338 | 6.4 | 14.5 | 0.00 | 0.00 | 0.00 | 67 | 1010.7 |
| 20260905232203 | 32 | 350 | 6.4 | 14.5 | 0.00 | 0.00 | 0.00 | 67 | 1010.7 |
| 20260905232102 | 32 | 357 | 6.4 | 14.5 | 0.00 | 0.00 | 0.00 | 67 | 1010.7 |
| 20260905232003 | 32 | 324 | 8.0 | 14.5 | 0.00 | 0.00 | 0.00 | 67 | 1010.6 |
| 20260905231902 | 32 | 341 | 9.7 | 14.5 | 0.00 | 0.00 | 0.00 | 66 | 1010.7 |
| 20260905231802 | 32 | 350 | 8.0 | 14.5 | 0.00 | 0.00 | 0.00 | 66 | 1010.7 |
| 20260905231701 | 32 | 309 | 6.4 | 14.5 | 0.00 | 0.00 | 0.00 | 66 | 1010.7 |
| 20260905231602 | 32 | 357 | 6.4 | 14.5 | 0.00 | 0.00 | 0.00 | 66 | 1010.7 |
| 20260905231502 | 32 | 333 | 6.4 | 14.5 | 0.00 | 0.00 | 0.00 | 66 | 1010.7 |
| 20260905231402 | 32 | 343 | 3.2 | 14.5 | 0.00 | 0.00 | 0.00 | 66 | 1010.6 |
| 20260905231302 | 32 | 347 | 6.4 | 14.5 | 0.00 | 0.00 | 0.00 | 66 | 1010.7 |
| 20260905231202 | 32 | 338 | 8.0 | 14.5 | 0.00 | 0.00 | 0.00 | 66 | 1010.7 |
| 20260905231103 | 32 | 345 | 6.4 | 14.5 | 0.00 | 0.00 | 0.00 | 65 | 1010.6 |
| 20260905231003 | 32 | 351 | 6.4 | 14.5 | 0.00 | 0.00 | 0.00 | 65 | 1010.6 |
| 20260905230902 | 32 | 324 | 8.0 | 14.5 | 0.00 | 0.00 | 0.00 | 65 | 1010.5 |
| 20260905230802 | 32 | 0 | 9.7 | 14.5 | 0.00 | 0.00 | 0.00 | 65 | 1010.7 |
| 20260905230703 | 32 | 321 | 8.0 | 14.5 | 0.00 | 0.00 | 0.00 | 65 | 1010.7 |
| 20260905230602 | 32 | 11 | 6.4 | 16.1 | 0.00 | 0.00 | 0.00 | 65 | 1010.7 |
| 20260905230502 | 32 | 343 | 6.4 | 16.1 | 0.00 | 0.00 | 0.00 | 64 | 1010.7 |
| 20260905230402 | 32 | 329 | 8.0 | 16.1 | 0.00 | 0.00 | 0.00 | 64 | 1010.7 |
| 20260905230302 | 33 | 336 | 8.0 | 16.1 | 0.00 | 0.00 | 0.00 | 65 | 1010.8 |
| 20260905230202 | 33 | 333 | 8.0 | 16.1 | 0.00 | 0.00 | 0.00 | 64 | 1010.7 |
| 20260905230003 | 33 | 11 | 6.4 | 16.1 | 0.00 | 0.00 | 0.00 | 64 | 1010.7 |
| 20260905225902 | 33 | 14 | 6.4 | 16.1 | 0.00 | 0.00 | 0.00 | 64 | 1010.7 |
| 20260905225803 | 33 | 0 | 6.4 | 16.1 | 0.00 | 0.00 | 0.00 | 64 | 1010.6 |
| 20260905225702 | 33 | 7 | 6.4 | 16.1 | 0.00 | 0.00 | 0.00 | 64 | 1010.7 |
| 20260905225602 | 33 | 0 | 4.8 | 17.7 | 0.00 | 0.00 | 0.00 | 64 | 1010.6 |
| 20260905225503 | 33 | 345 | 6.4 | 17.7 | 0.00 | 0.00 | 0.00 | 63 | 1010.6 |
| 20260905225402 | 33 | 333 | 6.4 | 17.7 | 0.00 | 0.00 | 0.00 | 63 | 1010.6 |
| 20260905225305 | 33 | 4 | 6.4 | 17.7 | 0.00 | 0.00 | 0.00 | 63 | 1010.6 |
| 20260905225202 | 33 | 330 | 9.7 | 17.7 | 0.00 | 0.00 | 0.00 | 63 | 1010.6 |
| 20260905225102 | 33 | 0 | 9.7 | 17.7 | 0.00 | 0.00 | 0.00 | 63 | 1010.5 |
| 20260905225002 | 33 | 13 | 6.4 | 17.7 | 0.00 | 0.00 | 0.00 | 63 | 1010.6 |
| 20260905224902 | 33 | 309 | 6.4 | 17.7 | 0.00 | 0.00 | 0.00 | 63 | 1010.5 |
| 20260905224802 | 33 | 348 | 9.7 | 17.7 | 0.00 | 0.00 | 0.00 | 62 | 1010.6 |
| 20260905224702 | 33 | 309 | 11.3 | 17.7 | 0.00 | 0.00 | 0.00 | 63 | 1010.5 |
| 20260905224603 | 33 | 10 | 9.7 | 14.5 | 0.00 | 0.00 | 0.00 | 62 | 1010.5 |
| 20260905224503 | 33 | 323 | 8.0 | 14.5 | 0.00 | 0.00 | 0.00 | 62 | 1010.5 |
| 20260905224403 | 33 | 343 | 6.4 | 14.5 | 0.00 | 0.00 | 0.00 | 63 | 1010.5 |
| 20260905224302 | 33 | 307 | 4.8 | 11.3 | 0.00 | 0.00 | 0.00 | 63 | 1010.5 |
| 20260905224203 | 33 | 351 | 3.2 | 11.3 | 0.00 | 0.00 | 0.00 | 62 | 1010.5 |
| 20260905224103 | 33 | 336 | 4.8 | 14.5 | 0.00 | 0.00 | 0.00 | 62 | 1010.5 |
| 20260905224002 | 33 | 283 | 6.4 | 14.5 | 0.00 | 0.00 | 0.00 | 62 | 1010.5 |
| 20260905223903 | 33 | 316 | 6.4 | 14.5 | 0.00 | 0.00 | 0.00 | 62 | 1010.5 |
| 20260905223802 | 33 | 336 | 6.4 | 14.5 | 0.00 | 0.00 | 0.00 | 62 | 1010.5 |
| 20260905223702 | 33 | 0 | 8.0 | 16.1 | 0.00 | 0.00 | 0.00 | 61 | 1010.5 |
| 20260905223602 | 33 | 348 | 6.4 | 16.1 | 0.00 | 0.00 | 0.00 | 62 | 1010.5 |
| 20260905223502 | 33 | 312 | 6.4 | 16.1 | 0.00 | 0.00 | 0.00 | 61 | 1010.4 |
| 20260905223402 | 33 | 316 | 6.4 | 16.1 | 0.00 | 0.00 | 0.00 | 61 | 1010.4 |
| 20260905223303 | 33 | 354 | 8.0 | 16.1 | 0.00 | 0.00 | 0.00 | 61 | 1010.5 |
| 20260905223201 | 33 | 303 | 8.0 | 16.1 | 0.00 | 0.00 | 0.00 | 61 | 1010.5 |
| 20260905223102 | 33 | 330 | 6.4 | 16.1 | 0.00 | 0.00 | 0.00 | 61 | 1010.5 |
| 20260905223002 | 33 | 330 | 4.8 | 16.1 | 0.00 | 0.00 | 0.00 | 61 | 1010.4 |
| 20260905222902 | 33 | 0 | 8.0 | 16.1 | 0.00 | 0.00 | 0.00 | 61 | 1010.5 |
| 20260905222802 | 33 | 331 | 9.7 | 16.1 | 0.00 | 0.00 | 0.00 | 61 | 1010.5 |
| 20260905222702 | 33 | 330 | 6.4 | 16.1 | 0.00 | 0.00 | 0.00 | 61 | 1010.5 |
| 20260905222602 | 33 | 310 | 3.2 | 16.1 | 0.00 | 0.00 | 0.00 | 61 | 1010.6 |
| 20260905222502 | 33 | 347 | 4.8 | 17.7 | 0.00 | 0.00 | 0.00 | 61 | 1010.6 |
| 20260905222402 | 33 | 341 | 6.4 | 17.7 | 0.00 | 0.00 | 0.00 | 61 | 1010.6 |
| 20260905222305 | 33 | 0 | 6.4 | 17.7 | 0.00 | 0.00 | 0.00 | 60 | 1010.5 |
| 20260905222202 | 33 | 343 | 9.7 | 17.7 | 0.00 | 0.00 | 0.00 | 60 | 1010.5 |
| 20260905222103 | 33 | 331 | 9.7 | 17.7 | 0.00 | 0.00 | 0.00 | 60 | 1010.5 |
| 20260905222003 | 33 | 0 | 9.7 | 17.7 | 0.00 | 0.00 | 0.00 | 60 | 1010.6 |
| 20260905221901 | 33 | 0 | 9.7 | 17.7 | 0.00 | 0.00 | 0.00 | 60 | 1010.6 |
| 20260905221802 | 33 | 323 | 9.7 | 17.7 | 0.00 | 0.00 | 0.00 | 60 | 1010.6 |
| 20260905221702 | 33 | 331 | 11.3 | 17.7 | 0.00 | 0.00 | 0.00 | 60 | 1010.6 |
| 20260905221602 | 33 | 14 | 12.9 | 17.7 | 0.00 | 0.00 | 0.00 | 60 | 1010.6 |
| 20260905221503 | 33 | 338 | 9.7 | 16.1 | 0.00 | 0.00 | 0.00 | 60 | 1010.6 |
| 20260905221402 | 33 | 320 | 6.4 | 14.5 | 0.00 | 0.00 | 0.00 | 61 | 1010.6 |
| 20260905221302 | 33 | 358 | 8.0 | 14.5 | 0.00 | 0.00 | 0.00 | 61 | 1010.6 |
| 20260905221202 | 33 | 1 | 6.4 | 14.5 | 0.00 | 0.00 | 0.00 | 62 | 1010.6 |
| 20260905221102 | 33 | 343 | 4.8 | 14.5 | 0.00 | 0.00 | 0.00 | 62 | 1010.6 |
| 20260905221002 | 33 | 13 | 3.2 | 14.5 | 0.00 | 0.00 | 0.00 | 62 | 1010.6 |
| 20260905220902 | 33 | 313 | 4.8 | 14.5 | 0.00 | 0.00 | 0.00 | 63 | 1010.6 |
| 20260905220802 | 33 | 313 | 4.8 | 14.5 | 0.00 | 0.00 | 0.00 | 62 | 1010.6 |
| 20260905220702 | 33 | 0 | 3.2 | 14.5 | 0.00 | 0.00 | 0.00 | 62 | 1010.5 |
| 20260905220602 | 33 | 329 | 6.4 | 14.5 | 0.00 | 0.00 | 0.00 | 61 | 1010.6 |
| 20260905220503 | 34 | 326 | 6.4 | 14.5 | 0.00 | 0.00 | 0.00 | 61 | 1010.5 |
| 20260905220403 | 34 | 0 | 6.4 | 14.5 | 0.00 | 0.00 | 0.00 | 62 | 1010.5 |
| 20260905220302 | 34 | 0 | 4.8 | 9.7 | 0.00 | 0.00 | 0.00 | 62 | 1010.4 |
| 20260905220202 | 34 | 355 | 3.2 | 8.0 | 0.00 | 0.00 | 0.00 | 64 | 1010.4 |
| 20260905220004 | 34 | 333 | 3.2 | 9.7 | 0.00 | 0.00 | 0.00 | 62 | 1010.4 |
| 20260905215902 | 34 | 355 | 3.2 | 11.3 | 0.00 | 0.00 | 0.00 | 62 | 1010.4 |
| 20260905215802 | 34 | 305 | 3.2 | 11.3 | 0.00 | 0.00 | 0.00 | 62 | 1010.5 |
| 20260905215702 | 34 | 317 | 1.6 | 11.3 | 0.00 | 0.00 | 0.00 | 61 | 1010.4 |
| 20260905215602 | 34 | 317 | 1.6 | 11.3 | 0.00 | 0.00 | 0.00 | 61 | 1010.3 |
| 20260905215503 | 34 | 317 | 3.2 | 11.3 | 0.00 | 0.00 | 0.00 | 61 | 1010.4 |
| 20260905215402 | 34 | 316 | 6.4 | 11.3 | 0.00 | 0.00 | 0.00 | 61 | 1010.4 |
| 20260905215305 | 34 | 331 | 6.4 | 11.3 | 0.00 | 0.00 | 0.00 | 60 | 1010.4 |
| 20260905215203 | 34 | 334 | 6.4 | 14.5 | 0.00 | 0.00 | 0.00 | 60 | 1010.4 |
| 20260905215103 | 34 | 321 | 8.0 | 14.5 | 0.00 | 0.00 | 0.00 | 60 | 1010.5 |
| 20260905215002 | 34 | 321 | 8.0 | 14.5 | 0.00 | 0.00 | 0.00 | 60 | 1010.5 |
| 20260905214902 | 34 | 310 | 4.8 | 14.5 | 0.00 | 0.00 | 0.00 | 61 | 1010.5 |
| 20260905214802 | 34 | 334 | 4.8 | 14.5 | 0.00 | 0.00 | 0.00 | 60 | 1010.5 |
| 20260905214702 | 35 | 299 | 4.8 | 14.5 | 0.00 | 0.00 | 0.00 | 59 | 1010.5 |
| 20260905214602 | 35 | 293 | 4.8 | 14.5 | 0.00 | 0.00 | 0.00 | 60 | 1010.5 |
| 20260905214503 | 35 | 310 | 4.8 | 14.5 | 0.00 | 0.00 | 0.00 | 60 | 1010.6 |
| 20260905214404 | 35 | 290 | 6.4 | 14.5 | 0.00 | 0.00 | 0.00 | 60 | 1010.5 |
| 20260905214301 | 35 | 7 | 8.0 | 14.5 | 0.00 | 0.00 | 0.00 | 60 | 1010.6 |
| 20260905214202 | 35 | 341 | 6.4 | 11.3 | 0.00 | 0.00 | 0.00 | 60 | 1010.7 |
| 20260905214102 | 35 | 323 | 4.8 | 11.3 | 0.00 | 0.00 | 0.00 | 59 | 1010.6 |
| 20260905214003 | 35 | 0 | 6.4 | 11.3 | 0.00 | 0.00 | 0.00 | 60 | 1010.7 |
| 20260905213902 | 35 | 336 | 4.8 | 11.3 | 0.00 | 0.00 | 0.00 | 59 | 1010.7 |
| 20260905213802 | 35 | 20 | 4.8 | 11.3 | 0.00 | 0.00 | 0.00 | 59 | 1010.7 |
| 20260905213702 | 35 | 23 | 6.4 | 11.3 | 0.00 | 0.00 | 0.00 | 60 | 1010.7 |
| 20260905213602 | 35 | 24 | 6.4 | 11.3 | 0.00 | 0.00 | 0.00 | 60 | 1010.7 |
| 20260905213503 | 35 | 44 | 6.4 | 11.3 | 0.00 | 0.00 | 0.00 | 61 | 1010.7 |
| 20260905213402 | 35 | 18 | 6.4 | 8.0 | 0.00 | 0.00 | 0.00 | 62 | 1010.7 |
| 20260905213302 | 35 | 17 | 6.4 | 9.7 | 0.00 | 0.00 | 0.00 | 62 | 1010.7 |
| 20260905213203 | 35 | 30 | 4.8 | 9.7 | 0.00 | 0.00 | 0.00 | 61 | 1010.7 |
| 20260905213102 | 35 | 1 | 3.2 | 9.7 | 0.00 | 0.00 | 0.00 | 60 | 1010.7 |
| 20260905213002 | 35 | 1 | 3.2 | 9.7 | 0.00 | 0.00 | 0.00 | 61 | 1010.7 |
| 20260905212903 | 34 | 0 | 3.2 | 9.7 | 0.00 | 0.00 | 0.00 | 62 | 1010.7 |
| 20260905212803 | 34 | 0 | 3.2 | 9.7 | 0.00 | 0.00 | 0.00 | 62 | 1010.7 |
| 20260905212701 | 34 | 0 | 3.2 | 14.5 | 0.00 | 0.00 | 0.00 | 62 | 1010.7 |
| 20260905212602 | 34 | 334 | 3.2 | 14.5 | 0.00 | 0.00 | 0.00 | 62 | 1010.7 |
| 20260905212502 | 35 | 326 | 6.4 | 14.5 | 0.00 | 0.00 | 0.00 | 61 | 1010.7 |
| 20260905212402 | 35 | 331 | 6.4 | 14.5 | 0.00 | 0.00 | 0.00 | 60 | 1010.7 |
| 20260905212305 | 35 | 343 | 6.4 | 14.5 | 0.00 | 0.00 | 0.00 | 60 | 1010.7 |
| 20260905212202 | 35 | 0 | 4.8 | 14.5 | 0.00 | 0.00 | 0.00 | 59 | 1010.6 |
| 20260905212102 | 35 | 344 | 3.2 | 14.5 | 0.00 | 0.00 | 0.00 | 58 | 1010.7 |
| 20260905212003 | 35 | 354 | 4.8 | 14.5 | 0.00 | 0.00 | 0.00 | 59 | 1010.6 |
| 20260905211903 | 35 | 355 | 6.4 | 14.5 | 0.00 | 0.00 | 0.00 | 59 | 1010.7 |
| 20260905211802 | 35 | 298 | 8.0 | 14.5 | 0.00 | 0.00 | 0.00 | 58 | 1010.6 |
| 20260905211702 | 35 | 295 | 4.8 | 9.7 | 0.00 | 0.00 | 0.00 | 59 | 1010.7 |
| 20260905211602 | 35 | 327 | 4.8 | 9.7 | 0.00 | 0.00 | 0.00 | 59 | 1010.6 |
| 20260905211502 | 35 | 326 | 6.4 | 9.7 | 0.00 | 0.00 | 0.00 | 59 | 1010.6 |
| 20260905211402 | 35 | 347 | 6.4 | 9.7 | 0.00 | 0.00 | 0.00 | 61 | 1010.7 |
| 20260905211302 | 35 | 334 | 4.8 | 8.0 | 0.00 | 0.00 | 0.00 | 60 | 1010.6 |
| 20260905211202 | 35 | 11 | 6.4 | 8.0 | 0.00 | 0.00 | 0.00 | 60 | 1010.7 |
| 20260905211103 | 35 | 10 | 6.4 | 8.0 | 0.00 | 0.00 | 0.00 | 59 | 1010.6 |
| 20260905211001 | 35 | 0 | 4.8 | 8.0 | 0.00 | 0.00 | 0.00 | 61 | 1010.6 |
| 20260905210902 | 34 | 345 | 3.2 | 8.0 | 0.00 | 0.00 | 0.00 | 62 | 1010.6 |
| 20260905210802 | 34 | 341 | 3.2 | 9.7 | 0.00 | 0.00 | 0.00 | 60 | 1010.6 |
| 20260905210702 | 34 | 354 | 3.2 | 9.7 | 0.00 | 0.00 | 0.00 | 60 | 1010.6 |
| 20260905210602 | 34 | 354 | 3.2 | 9.7 | 0.00 | 0.00 | 0.00 | 61 | 1010.6 |
| 20260905210502 | 34 | 354 | 4.8 | 9.7 | 0.00 | 0.00 | 0.00 | 61 | 1010.6 |
| 20260905210402 | 34 | 357 | 4.8 | 11.3 | 0.00 | 0.00 | 0.00 | 62 | 1010.7 |
| 20260905210303 | 34 | 0 | 3.2 | 11.3 | 0.00 | 0.00 | 0.00 | 62 | 1010.7 |
| 20260905210202 | 34 | 24 | 1.6 | 11.3 | 0.00 | 0.00 | 0.00 | 63 | 1010.7 |
| 20260905210002 | 34 | 354 | 4.8 | 11.3 | 0.00 | 0.00 | 0.00 | 63 | 1010.7 |
| 20260905205902 | 33 | 350 | 6.4 | 11.3 | 0.00 | 0.00 | 0.00 | 62 | 1010.7 |
| 20260905205801 | 33 | 0 | 4.8 | 11.3 | 0.00 | 0.00 | 0.00 | 62 | 1010.8 |
| 20260905205702 | 33 | 358 | 4.8 | 11.3 | 0.00 | 0.00 | 0.00 | 63 | 1010.8 |
| 20260905205602 | 33 | 333 | 8.0 | 11.3 | 0.00 | 0.00 | 0.00 | 63 | 1010.8 |
| 20260905205502 | 33 | 350 | 6.4 | 11.3 | 0.00 | 0.00 | 0.00 | 62 | 1010.8 |
| 20260905205402 | 33 | 323 | 6.4 | 8.0 | 0.00 | 0.00 | 0.00 | 63 | 1010.7 |
| 20260905205306 | 33 | 321 | 6.4 | 8.0 | 0.00 | 0.00 | 0.00 | 64 | 1010.8 |
| 20260905205202 | 33 | 11 | 4.8 | 8.0 | 0.00 | 0.00 | 0.00 | 63 | 1010.8 |
| 20260905205102 | 33 | 334 | 3.2 | 8.0 | 0.00 | 0.00 | 0.00 | 64 | 1010.8 |
| 20260905205003 | 33 | 331 | 3.2 | 9.7 | 0.00 | 0.00 | 0.00 | 63 | 1010.8 |
| 20260905204902 | 33 | 331 | 3.2 | 9.7 | 0.00 | 0.00 | 0.00 | 63 | 1010.7 |
| 20260905204803 | 33 | 331 | 3.2 | 9.7 | 0.00 | 0.00 | 0.00 | 63 | 1010.8 |
| 20260905204703 | 33 | 331 | 3.2 | 9.7 | 0.00 | 0.00 | 0.00 | 63 | 1010.8 |
| 20260905204601 | 33 | 331 | 1.6 | 9.7 | 0.00 | 0.00 | 0.00 | 63 | 1010.9 |
| 20260905204502 | 33 | 331 | 3.2 | 9.7 | 0.00 | 0.00 | 0.00 | 63 | 1010.8 |
| 20260905204403 | 33 | 331 | 3.2 | 9.7 | 0.00 | 0.00 | 0.00 | 63 | 1010.8 |
| 20260905204303 | 33 | 331 | 4.8 | 9.7 | 0.00 | 0.00 | 0.00 | 63 | 1010.9 |
| 20260905204201 | 33 | 334 | 4.8 | 9.7 | 0.00 | 0.00 | 0.00 | 62 | 1011.0 |
| 20260905204102 | 33 | 341 | 4.8 | 9.7 | 0.00 | 0.00 | 0.00 | 62 | 1011.0 |
| 20260905204003 | 33 | 0 | 3.2 | 14.5 | 0.00 | 0.00 | 0.00 | 62 | 1011.0 |
| 20260905203902 | 33 | 7 | 4.8 | 16.1 | 0.00 | 0.00 | 0.00 | 62 | 1011.0 |
| 20260905203803 | 33 | 329 | 4.8 | 16.1 | 0.00 | 0.00 | 0.00 | 62 | 1011.0 |
| 20260905203702 | 33 | 314 | 4.8 | 16.1 | 0.00 | 0.00 | 0.00 | 61 | 1011.1 |
| 20260905203602 | 33 | 333 | 4.8 | 16.1 | 0.00 | 0.00 | 0.00 | 61 | 1011.0 |
| 20260905203503 | 34 | 314 | 4.8 | 16.1 | 0.00 | 0.00 | 0.00 | 60 | 1011.0 |
| 20260905203402 | 34 | 314 | 6.4 | 16.1 | 0.00 | 0.00 | 0.00 | 59 | 1011.1 |
| 20260905203302 | 34 | 298 | 8.0 | 16.1 | 0.00 | 0.00 | 0.00 | 59 | 1011.0 |
| 20260905203202 | 35 | 333 | 8.0 | 16.1 | 0.00 | 0.00 | 0.00 | 58 | 1011.0 |
| 20260905203101 | 35 | 327 | 9.7 | 16.1 | 0.00 | 0.00 | 0.00 | 58 | 1011.1 |
| 20260905203000 | 35 | 7 | 9.7 | 16.1 | 0.00 | 0.00 | 0.00 | 57 | 1011.1 |
| 20260905202858 | 35 | 341 | 11.3 | 16.1 | 0.00 | 0.00 | 0.00 | 57 | 1011.0 |
| 20260905202757 | 35 | 314 | 9.7 | 16.1 | 0.00 | 0.00 | 0.00 | 57 | 1011.0 |
| 20260905202655 | 35 | 338 | 9.7 | 16.1 | 0.00 | 0.00 | 0.00 | 58 | 1011.0 |
| 20260905202553 | 35 | 3 | 9.7 | 16.1 | 0.00 | 0.00 | 0.00 | 56 | 1011.1 |
| 20260905202452 | 35 | 20 | 9.7 | 17.7 | 0.00 | 0.00 | 0.00 | 55 | 1011.1 |
| 20260905202351 | 35 | 24 | 9.7 | 17.7 | 0.00 | 0.00 | 0.00 | 56 | 1011.1 |
| 20260905202249 | 35 | 289 | 8.0 | 17.7 | 0.00 | 0.00 | 0.00 | 56 | 1011.0 |
| 20260905202147 | 35 | 355 | 6.4 | 17.7 | 0.00 | 0.00 | 0.00 | 58 | 1010.9 |
| 20260905202046 | 35 | 0 | 6.4 | 17.7 | 0.00 | 0.00 | 0.00 | 56 | 1010.9 |
| 20260905201945 | 35 | 0 | 6.4 | 17.7 | 0.00 | 0.00 | 0.00 | 55 | 1010.9 |
| 20260905201843 | 35 | 312 | 6.4 | 17.7 | 0.00 | 0.00 | 0.00 | 55 | 1011.0 |
| 20260905201741 | 35 | 18 | 9.7 | 17.7 | 0.00 | 0.00 | 0.00 | 56 | 1011.0 |
| 20260905201638 | 35 | 337 | 11.3 | 17.7 | 0.00 | 0.00 | 0.00 | 55 | 1011.1 |
| 20260905201536 | 35 | 295 | 9.7 | 17.7 | 0.00 | 0.00 | 0.00 | 55 | 1011.1 |
| 20260905201434 | 35 | 348 | 4.8 | 17.7 | 0.00 | 0.00 | 0.00 | 56 | 1011.1 |
| 20260905201333 | 35 | 300 | 6.4 | 17.7 | 0.00 | 0.00 | 0.00 | 56 | 1011.0 |
| 20260905201231 | 35 | 314 | 8.0 | 17.7 | 0.00 | 0.00 | 0.00 | 56 | 1011.0 |
| 20260905201131 | 35 | 313 | 9.7 | 17.7 | 0.00 | 0.00 | 0.00 | 55 | 1011.0 |
| 20260905201032 | 35 | 353 | 8.0 | 17.7 | 0.00 | 0.00 | 0.00 | 54 | 1011.0 |
| 20260905200931 | 35 | 357 | 6.4 | 17.7 | 0.00 | 0.00 | 0.00 | 55 | 1011.1 |
| 20260905200831 | 35 | 4 | 6.4 | 17.7 | 0.00 | 0.00 | 0.00 | 55 | 1011.1 |
| 20260905200731 | 35 | 7 | 8.0 | 17.7 | 0.00 | 0.00 | 0.00 | 55 | 1011.1 |
| 20260905200630 | 35 | 337 | 9.7 | 17.7 | 0.00 | 0.00 | 0.00 | 55 | 1011.2 |
| 20260905200531 | 35 | 0 | 12.9 | 17.7 | 0.00 | 0.00 | 0.00 | 56 | 1011.2 |
| 20260905200430 | 35 | 7 | 9.7 | 17.7 | 0.00 | 0.00 | 0.00 | 55 | 1011.3 |
| 20260905200326 | 35 | 343 | 6.4 | 16.1 | 0.00 | 0.00 | 0.00 | 56 | 1011.3 |
| 20260905200224 | 35 | 353 | 6.4 | 14.5 | 0.00 | 0.00 | 0.00 | 55 | 1011.3 |
| 20260905200123 | 35 | 320 | 6.4 | 14.5 | 0.00 | 0.00 | 0.00 | 54 | 1011.3 |
| 20260905200023 | 35 | 334 | 6.4 | 14.5 | 0.00 | 0.00 | 0.00 | 55 | 1011.2 |
| 20260905195921 | 35 | 0 | 6.4 | 14.5 | 0.00 | 0.00 | 0.00 | 56 | 1011.2 |
| 20260905195821 | 35 | 0 | 6.4 | 14.5 | 0.00 | 0.00 | 0.00 | 56 | 1011.3 |
| 20260905195721 | 35 | 316 | 8.0 | 14.5 | 0.00 | 0.00 | 0.00 | 56 | 1011.2 |
| 20260905195621 | 35 | 8 | 8.0 | 14.5 | 0.00 | 0.00 | 0.00 | 57 | 1011.3 |
| 20260905195522 | 35 | 319 | 6.4 | 14.5 | 0.00 | 0.00 | 0.00 | 57 | 1011.3 |
| 20260905195422 | 35 | 288 | 6.4 | 14.5 | 0.00 | 0.00 | 0.00 | 56 | 1011.2 |
| 20260905195321 | 35 | 247 | 8.0 | 11.3 | 0.00 | 0.00 | 0.00 | 56 | 1011.2 |
| 20260905195221 | 35 | 285 | 6.4 | 11.3 | 0.00 | 0.00 | 0.00 | 56 | 1011.2 |
| 20260905195122 | 35 | 20 | 3.2 | 11.3 | 0.00 | 0.00 | 0.00 | 57 | 1011.2 |
| 20260905195021 | 35 | 224 | 1.6 | 11.3 | 0.00 | 0.00 | 0.00 | 58 | 1011.3 |
| 20260905194921 | 35 | 224 | 4.8 | 11.3 | 0.00 | 0.00 | 0.00 | 57 | 1011.3 |
| 20260905194821 | 35 | 286 | 6.4 | 11.3 | 0.00 | 0.00 | 0.00 | 57 | 1011.3 |
| 20260905194721 | 35 | 7 | 6.4 | 11.3 | 0.00 | 0.00 | 0.00 | 56 | 1011.3 |
| 20260905194621 | 35 | 347 | 6.4 | 9.7 | 0.00 | 0.00 | 0.00 | 57 | 1011.3 |
| 20260905194521 | 35 | 310 | 6.4 | 11.3 | 0.00 | 0.00 | 0.00 | 55 | 1011.4 |
| 20260905194422 | 35 | 10 | 4.8 | 11.3 | 0.00 | 0.00 | 0.00 | 56 | 1011.4 |
| 20260905194321 | 35 | 348 | 4.8 | 11.3 | 0.00 | 0.00 | 0.00 | 56 | 1011.4 |
| 20260905194221 | 35 | 331 | 6.4 | 14.5 | 0.00 | 0.00 | 0.00 | 56 | 1011.4 |
| 20260905194122 | 35 | 17 | 4.8 | 14.5 | 0.00 | 0.00 | 0.00 | 57 | 1011.3 |
| 20260905194022 | 35 | 320 | 4.8 | 14.5 | 0.00 | 0.00 | 0.00 | 56 | 1011.3 |
| 20260905193921 | 35 | 324 | 3.2 | 14.5 | 0.00 | 0.00 | 0.00 | 54 | 1011.3 |
| 20260905193821 | 35 | 323 | 4.8 | 14.5 | 0.00 | 0.00 | 0.00 | 54 | 1011.2 |
| 20260905193721 | 35 | 320 | 6.4 | 14.5 | 0.00 | 0.00 | 0.00 | 54 | 1011.2 |
| 20260905193621 | 35 | 290 | 6.4 | 14.5 | 0.00 | 0.00 | 0.00 | 54 | 1011.2 |
| 20260905193521 | 35 | 344 | 6.4 | 14.5 | 0.00 | 0.00 | 0.00 | 54 | 1011.2 |
| 20260905193420 | 35 | 0 | 8.0 | 14.5 | 0.00 | 0.00 | 0.00 | 55 | 1011.2 |
| 20260905193320 | 35 | 323 | 8.0 | 14.5 | 0.00 | 0.00 | 0.00 | 55 | 1011.2 |
| 20260905193221 | 35 | 336 | 6.4 | 11.3 | 0.00 | 0.00 | 0.00 | 55 | 1011.1 |
| 20260905193121 | 35 | 343 | 4.8 | 11.3 | 0.00 | 0.00 | 0.00 | 55 | 1011.1 |
| 20260905193021 | 35 | 7 | 4.8 | 11.3 | 0.00 | 0.00 | 0.00 | 56 | 1011.2 |
| 20260905192921 | 35 | 10 | 6.4 | 14.5 | 0.00 | 0.00 | 0.00 | 56 | 1011.1 |
| 20260905192821 | 35 | 331 | 8.0 | 14.5 | 0.00 | 0.00 | 0.00 | 55 | 1011.2 |
| 20260905192720 | 35 | 340 | 8.0 | 14.5 | 0.00 | 0.00 | 0.00 | 56 | 1011.3 |
| 20260905192620 | 35 | 329 | 6.4 | 14.5 | 0.00 | 0.00 | 0.00 | 57 | 1011.3 |
| 20260905192520 | 35 | 326 | 6.4 | 14.5 | 0.00 | 0.00 | 0.00 | 60 | 1011.3 |
| 20260905192421 | 35 | 274 | 4.8 | 14.5 | 0.00 | 0.00 | 0.00 | 61 | 1011.4 |
| 20260905192321 | 35 | 334 | 1.6 | 14.5 | 0.00 | 0.00 | 0.00 | 63 | 1011.4 |
| 20260905192221 | 35 | 279 | 3.2 | 14.5 | 0.00 | 0.00 | 0.00 | 64 | 1011.4 |
| 20260905192121 | 34 | 279 | 4.8 | 14.5 | 0.00 | 0.00 | 0.00 | 62 | 1011.4 |
| 20260905192021 | 34 | 298 | 4.8 | 14.5 | 0.00 | 0.00 | 0.00 | 60 | 1011.4 |
| 20260905191920 | 34 | 24 | 4.8 | 9.7 | 0.00 | 0.00 | 0.00 | 60 | 1011.4 |
| 20260905191819 | 34 | 42 | 4.8 | 8.0 | 0.00 | 0.00 | 0.00 | 59 | 1011.4 |
| 20260905191720 | 34 | 42 | 3.2 | 8.0 | 0.00 | 0.00 | 0.00 | 59 | 1011.4 |
| 20260905191620 | 34 | 13 | 1.6 | 8.0 | 0.00 | 0.00 | 0.00 | 59 | 1011.5 |
| 20260905191520 | 34 | 13 | 3.2 | 8.0 | 0.00 | 0.00 | 0.00 | 59 | 1011.5 |
| 20260905191420 | 34 | 13 | 4.8 | 8.0 | 0.00 | 0.00 | 0.00 | 60 | 1011.5 |
| 20260905191320 | 34 | 41 | 3.2 | 6.4 | 0.00 | 0.00 | 0.00 | 60 | 1011.4 |
| 20260905191220 | 34 | 55 | 1.6 | 6.4 | 0.00 | 0.00 | 0.00 | 61 | 1011.5 |
| 20260905191120 | 34 | 55 | 3.2 | 6.4 | 0.00 | 0.00 | 0.00 | 61 | 1011.4 |
| 20260905191021 | 34 | 55 | 1.6 | 6.4 | 0.00 | 0.00 | 0.00 | 63 | 1011.4 |
| 20260905190921 | 34 | 55 | 0.0 | 6.4 | 0.00 | 0.00 | 0.00 | 63 | 1011.4 |
| 20260905190820 | 34 | 55 | 1.6 | 6.4 | 0.00 | 0.00 | 0.00 | 63 | 1011.4 |
| 20260905190720 | 34 | 55 | 3.2 | 6.4 | 0.00 | 0.00 | 0.00 | 64 | 1011.4 |
| 20260905190620 | 34 | 55 | 3.2 | 6.4 | 0.00 | 0.00 | 0.00 | 63 | 1011.4 |
| 20260905190520 | 34 | 55 | 3.2 | 4.8 | 0.00 | 0.00 | 0.00 | 64 | 1011.4 |
| 20260905190420 | 34 | 55 | 1.6 | 4.8 | 0.00 | 0.00 | 0.00 | 64 | 1011.4 |
| 20260905190320 | 34 | 55 | 1.6 | 4.8 | 0.00 | 0.00 | 0.00 | 64 | 1011.4 |
| 20260905190220 | 34 | 55 | 1.6 | 4.8 | 0.00 | 0.00 | 0.00 | 64 | 1011.5 |
| 20260905190120 | 34 | 31 | 1.6 | 4.8 | 0.00 | 0.00 | 0.00 | 65 | 1011.5 |
| 20260905190020 | 33 | 31 | 1.6 | 4.8 | 0.00 | 0.00 | 0.00 | 66 | 1011.5 |
| 20260905185920 | 33 | 31 | 0.0 | 4.8 | 0.00 | 0.00 | 0.00 | 66 | 1011.5 |
| 20260905185820 | 33 | 31 | 1.6 | 4.8 | 0.00 | 0.00 | 0.00 | 63 | 1011.5 |
| 20260905185720 | 33 | 31 | 1.6 | 4.8 | 0.00 | 0.00 | 0.00 | 63 | 1011.5 |
| 20260905185620 | 33 | 31 | 0.0 | 4.8 | 0.00 | 0.00 | 0.00 | 64 | 1011.7 |
| 20260905185520 | 33 | 31 | 0.0 | 4.8 | 0.00 | 0.00 | 0.00 | 63 | 1011.8 |
| 20260905185419 | 33 | 31 | 0.0 | 4.8 | 0.00 | 0.00 | 0.00 | 62 | 1011.8 |
| 20260905185320 | 33 | 31 | 1.6 | 4.8 | 0.00 | 0.00 | 0.00 | 62 | 1011.8 |
| 20260905185220 | 33 | 31 | 1.6 | 4.8 | 0.00 | 0.00 | 0.00 | 63 | 1011.8 |
| 20260905185120 | 33 | 31 | 0.0 | 3.2 | 0.00 | 0.00 | 0.00 | 63 | 1011.9 |
| 20260905185020 | 34 | 31 | 0.0 | 3.2 | 0.00 | 0.00 | 0.00 | 63 | 1011.9 |
| 20260905184920 | 34 | 31 | 0.0 | 3.2 | 0.00 | 0.00 | 0.00 | 63 | 1011.9 |
| 20260905184820 | 34 | 31 | 0.0 | 3.2 | 0.00 | 0.00 | 0.00 | 63 | 1011.8 |
| 20260905184720 | 34 | 31 | 0.0 | 3.2 | 0.00 | 0.00 | 0.00 | 62 | 1011.8 |
| 20260905184620 | 34 | 31 | 0.0 | 4.8 | 0.00 | 0.00 | 0.00 | 62 | 1011.8 |
| 20260905184519 | 34 | 31 | 0.0 | 4.8 | 0.00 | 0.00 | 0.00 | 62 | 1011.8 |
| 20260905184419 | 34 | 31 | 0.0 | 4.8 | 0.00 | 0.00 | 0.00 | 62 | 1011.9 |
| 20260905184320 | 35 | 31 | 1.6 | 6.4 | 0.00 | 0.00 | 0.00 | 62 | 1011.8 |
| 20260905184220 | 35 | 31 | 1.6 | 8.0 | 0.00 | 0.00 | 0.00 | 60 | 1011.8 |
| 20260905184120 | 35 | 31 | 0.0 | 8.0 | 0.00 | 0.00 | 0.00 | 59 | 1011.8 |
| 20260905184020 | 35 | 31 | 0.0 | 8.0 | 0.00 | 0.00 | 0.00 | 58 | 1011.9 |
| 20260905183920 | 35 | 31 | 0.0 | 8.0 | 0.00 | 0.00 | 0.00 | 58 | 1011.9 |
| 20260905183820 | 35 | 31 | 1.6 | 8.0 | 0.00 | 0.00 | 0.00 | 58 | 1012.0 |
| 20260905183719 | 35 | 31 | 1.6 | 8.0 | 0.00 | 0.00 | 0.00 | 57 | 1011.9 |
| 20260905183620 | 35 | 31 | 1.6 | 8.0 | 0.00 | 0.00 | 0.00 | 57 | 1012.0 |
| 20260905183519 | 35 | 31 | 3.2 | 8.0 | 0.00 | 0.00 | 0.00 | 57 | 1012.0 |
| 20260905183419 | 35 | 31 | 6.4 | 8.0 | 0.00 | 0.00 | 0.00 | 58 | 1012.0 |
| 20260905183319 | 35 | 30 | 4.8 | 8.0 | 0.00 | 0.00 | 0.00 | 57 | 1012.0 |
| 20260905183219 | 35 | 336 | 4.8 | 8.0 | 0.00 | 0.00 | 0.00 | 57 | 1012.0 |
| 20260905183119 | 35 | 303 | 4.8 | 8.0 | 0.00 | 0.00 | 0.00 | 57 | 1012.0 |
| 20260905183019 | 35 | 0 | 4.8 | 6.4 | 0.00 | 0.00 | 0.00 | 56 | 1012.0 |
| 20260905182919 | 35 | 0 | 3.2 | 6.4 | 0.00 | 0.00 | 0.00 | 57 | 1012.0 |
| 20260905182819 | 35 | 37 | 1.6 | 4.8 | 0.00 | 0.00 | 0.00 | 56 | 1012.0 |
| 20260905182719 | 35 | 37 | 3.2 | 4.8 | 0.00 | 0.00 | 0.00 | 56 | 1012.1 |
| 20260905182619 | 35 | 37 | 3.2 | 4.8 | 0.00 | 0.00 | 0.00 | 57 | 1012.1 |
| 20260905182519 | 35 | 41 | 1.6 | 4.8 | 0.00 | 0.00 | 0.00 | 56 | 1012.1 |
| 20260905182419 | 35 | 41 | 0.0 | 4.8 | 0.00 | 0.00 | 0.00 | 56 | 1012.2 |
| 20260905182319 | 35 | 41 | 0.0 | 4.8 | 0.00 | 0.00 | 0.00 | 58 | 1012.2 |
| 20260905182219 | 35 | 41 | 1.6 | 4.8 | 0.00 | 0.00 | 0.00 | 57 | 1012.2 |
| 20260905182119 | 35 | 41 | 0.0 | 4.8 | 0.00 | 0.00 | 0.00 | 57 | 1012.2 |
| 20260905182019 | 35 | 251 | 0.0 | 3.2 | 0.00 | 0.00 | 0.00 | 57 | 1012.2 |
| 20260905181919 | 35 | 251 | 0.0 | 3.2 | 0.00 | 0.00 | 0.00 | 57 | 1012.2 |
| 20260905181819 | 35 | 251 | 0.0 | 3.2 | 0.00 | 0.00 | 0.00 | 59 | 1012.3 |
| 20260905181719 | 35 | 251 | 0.0 | 3.2 | 0.00 | 0.00 | 0.00 | 58 | 1012.2 |
| 20260905181619 | 35 | 251 | 0.0 | 3.2 | 0.00 | 0.00 | 0.00 | 58 | 1012.3 |
| 20260905181519 | 35 | 251 | 0.0 | 3.2 | 0.00 | 0.00 | 0.00 | 57 | 1012.3 |
| 20260905181419 | 35 | 251 | 0.0 | 3.2 | 0.00 | 0.00 | 0.00 | 57 | 1012.3 |
| 20260905181319 | 35 | 251 | 0.0 | 3.2 | 0.00 | 0.00 | 0.00 | 57 | 1012.4 |
| 20260905181219 | 35 | 251 | 0.0 | 3.2 | 0.00 | 0.00 | 0.00 | 58 | 1012.3 |
| 20260905181119 | 35 | 251 | 0.0 | 4.8 | 0.00 | 0.00 | 0.00 | 59 | 1012.3 |
| 20260905181019 | 35 | 251 | 0.0 | 4.8 | 0.00 | 0.00 | 0.00 | 59 | 1012.3 |
| 20260905180919 | 34 | 251 | 0.0 | 4.8 | 0.00 | 0.00 | 0.00 | 60 | 1012.3 |
| 20260905180819 | 34 | 251 | 0.0 | 4.8 | 0.00 | 0.00 | 0.00 | 62 | 1012.4 |
| 20260905180719 | 34 | 251 | 0.0 | 4.8 | 0.00 | 0.00 | 0.00 | 62 | 1012.4 |
| 20260905180619 | 34 | 251 | 0.0 | 4.8 | 0.00 | 0.00 | 0.00 | 61 | 1012.4 |
| 20260905180519 | 34 | 251 | 0.0 | 4.8 | 0.00 | 0.00 | 0.00 | 62 | 1012.4 |
| 20260905180418 | 34 | 251 | 0.0 | 4.8 | 0.00 | 0.00 | 0.00 | 61 | 1012.4 |
| 20260905180318 | 34 | 251 | 1.6 | 4.8 | 0.00 | 0.00 | 0.00 | 61 | 1012.5 |
| 20260905180218 | 34 | 251 | 3.2 | 4.8 | 0.00 | 0.00 | 0.00 | 61 | 1012.5 |
| 20260905180118 | 34 | 251 | 1.6 | 4.8 | 0.00 | 0.00 | 0.00 | 62 | 1012.5 |
| 20260905180019 | 34 | 251 | 1.6 | 6.4 | 0.00 | 0.00 | 0.00 | 62 | 1012.5 |
| 20260905175919 | 34 | 251 | 3.2 | 6.4 | 0.00 | 0.00 | 0.00 | 59 | 1012.5 |
| 20260905175819 | 34 | 251 | 1.6 | 6.4 | 0.00 | 0.00 | 0.00 | 61 | 1012.5 |
| 20260905175719 | 34 | 251 | 0.0 | 6.4 | 0.00 | 0.00 | 0.00 | 60 | 1012.6 |
| 20260905175618 | 34 | 251 | 0.0 | 6.4 | 0.00 | 0.00 | 0.00 | 58 | 1012.5 |
| 20260905175518 | 34 | 251 | 0.0 | 6.4 | 0.00 | 0.00 | 0.00 | 58 | 1012.6 |
| 20260905175418 | 34 | 251 | 1.6 | 6.4 | 0.00 | 0.00 | 0.00 | 58 | 1012.6 |
| 20260905175318 | 34 | 251 | 3.2 | 6.4 | 0.00 | 0.00 | 0.00 | 59 | 1012.7 |
| 20260905175218 | 34 | 251 | 3.2 | 6.4 | 0.00 | 0.00 | 0.00 | 60 | 1012.7 |
| 20260905175118 | 34 | 251 | 3.2 | 6.4 | 0.00 | 0.00 | 0.00 | 59 | 1012.6 |
| 20260905175018 | 34 | 252 | 3.2 | 6.4 | 0.00 | 0.00 | 0.00 | 61 | 1012.7 |
| 20260905174918 | 34 | 269 | 1.6 | 4.8 | 0.00 | 0.00 | 0.00 | 62 | 1012.7 |
| 20260905174818 | 34 | 227 | 1.6 | 4.8 | 0.00 | 0.00 | 0.00 | 63 | 1012.6 |
| 20260905174719 | 34 | 226 | 1.6 | 6.4 | 0.00 | 0.00 | 0.00 | 62 | 1012.6 |
| 20260905174619 | 34 | 226 | 1.6 | 6.4 | 0.00 | 0.00 | 0.00 | 64 | 1012.6 |
| 20260905174519 | 34 | 226 | 1.6 | 6.4 | 0.00 | 0.00 | 0.00 | 62 | 1012.6 |
| 20260905174418 | 34 | 147 | 0.0 | 6.4 | 0.00 | 0.00 | 0.00 | 61 | 1012.6 |
| 20260905174318 | 34 | 94 | 0.0 | 6.4 | 0.00 | 0.00 | 0.00 | 62 | 1012.6 |
| 20260905174218 | 33 | 79 | 1.6 | 6.4 | 0.00 | 0.00 | 0.00 | 62 | 1012.6 |
| 20260905174118 | 33 | 0 | 3.2 | 6.4 | 0.00 | 0.00 | 0.00 | 61 | 1012.6 |
| 20260905174018 | 33 | 0 | 3.2 | 6.4 | 0.00 | 0.00 | 0.00 | 61 | 1012.6 |
| 20260905173918 | 33 | 0 | 3.2 | 6.4 | 0.00 | 0.00 | 0.00 | 61 | 1012.7 |
| 20260905173819 | 33 | 0 | 1.6 | 6.4 | 0.00 | 0.00 | 0.00 | 61 | 1012.6 |
| 20260905173718 | 33 | 331 | 0.0 | 6.4 | 0.00 | 0.00 | 0.00 | 62 | 1012.7 |
| 20260905173618 | 33 | 336 | 0.0 | 6.4 | 0.00 | 0.00 | 0.00 | 61 | 1012.7 |
| 20260905173518 | 33 | 334 | 1.6 | 6.4 | 0.00 | 0.00 | 0.00 | 61 | 1012.7 |
| 20260905173418 | 33 | 44 | 4.8 | 6.4 | 0.00 | 0.00 | 0.00 | 61 | 1012.6 |
| 20260905173318 | 33 | 220 | 4.8 | 6.4 | 0.00 | 0.00 | 0.00 | 64 | 1012.7 |
| 20260905173217 | 33 | 226 | 3.2 | 6.4 | 0.00 | 0.00 | 0.00 | 63 | 1012.6 |
| 20260905173118 | 33 | 247 | 3.2 | 6.4 | 0.00 | 0.00 | 0.00 | 63 | 1012.7 |
| 20260905173018 | 33 | 247 | 3.2 | 6.4 | 0.00 | 0.00 | 0.00 | 63 | 1012.7 |
| 20260905172918 | 33 | 245 | 1.6 | 6.4 | 0.00 | 0.00 | 0.00 | 63 | 1012.6 |
| 20260905172818 | 33 | 238 | 1.6 | 6.4 | 0.00 | 0.00 | 0.00 | 63 | 1012.6 |
| 20260905172718 | 33 | 238 | 1.6 | 6.4 | 0.00 | 0.00 | 0.00 | 62 | 1012.6 |
| 20260905172618 | 33 | 238 | 3.2 | 6.4 | 0.00 | 0.00 | 0.00 | 63 | 1012.6 |
| 20260905172518 | 33 | 258 | 1.6 | 4.8 | 0.00 | 0.00 | 0.00 | 63 | 1012.7 |
| 20260905172418 | 33 | 298 | 3.2 | 4.8 | 0.00 | 0.00 | 0.00 | 61 | 1012.7 |
| 20260905172317 | 33 | 298 | 3.2 | 4.8 | 0.00 | 0.00 | 0.00 | 62 | 1012.6 |
| 20260905172217 | 33 | 303 | 1.6 | 4.8 | 0.00 | 0.00 | 0.00 | 64 | 1012.6 |
| 20260905172117 | 33 | 307 | 1.6 | 4.8 | 0.00 | 0.00 | 0.00 | 65 | 1012.6 |
| 20260905172017 | 33 | 309 | 0.0 | 4.8 | 0.00 | 0.00 | 0.00 | 66 | 1012.6 |
| 20260905171917 | 33 | 309 | 0.0 | 4.8 | 0.00 | 0.00 | 0.00 | 66 | 1012.6 |
| 20260905171818 | 33 | 316 | 1.6 | 4.8 | 0.00 | 0.00 | 0.00 | 65 | 1012.6 |
| 20260905171718 | 33 | 292 | 0.0 | 4.8 | 0.00 | 0.00 | 0.00 | 66 | 1012.6 |
| 20260905171618 | 33 | 251 | 0.0 | 4.8 | 0.00 | 0.00 | 0.00 | 66 | 1012.6 |
| 20260905171518 | 33 | 252 | 0.0 | 4.8 | 0.00 | 0.00 | 0.00 | 67 | 1012.7 |
| 20260905171418 | 33 | 252 | 1.6 | 4.8 | 0.00 | 0.00 | 0.00 | 66 | 1012.6 |
| 20260905171317 | 33 | 252 | 1.6 | 4.8 | 0.00 | 0.00 | 0.00 | 65 | 1012.6 |
| 20260905171218 | 33 | 252 | 0.0 | 4.8 | 0.00 | 0.00 | 0.00 | 64 | 1012.6 |
| 20260905171118 | 33 | 252 | 0.0 | 4.8 | 0.00 | 0.00 | 0.00 | 65 | 1012.7 |
| 20260905171018 | 33 | 252 | 1.6 | 4.8 | 0.00 | 0.00 | 0.00 | 66 | 1012.7 |
| 20260905170917 | 33 | 252 | 3.2 | 4.8 | 0.00 | 0.00 | 0.00 | 65 | 1012.6 |
| 20260905170817 | 33 | 252 | 3.2 | 4.8 | 0.00 | 0.00 | 0.00 | 64 | 1012.7 |
| 20260905170717 | 33 | 138 | 3.2 | 4.8 | 0.00 | 0.00 | 0.00 | 66 | 1012.7 |
| 20260905170617 | 33 | 235 | 3.2 | 4.8 | 0.00 | 0.00 | 0.00 | 66 | 1012.7 |
| 20260905170518 | 33 | 237 | 1.6 | 4.8 | 0.00 | 0.00 | 0.00 | 66 | 1012.7 |
| 20260905170418 | 33 | 240 | 1.6 | 6.4 | 0.00 | 0.00 | 0.00 | 66 | 1012.8 |
| 20260905170318 | 33 | 164 | 1.6 | 6.4 | 0.00 | 0.00 | 0.00 | 66 | 1012.8 |
| 20260905170218 | 33 | 159 | 1.6 | 6.4 | 0.00 | 0.00 | 0.00 | 66 | 1012.9 |
| 20260905170118 | 33 | 238 | 0.0 | 6.4 | 0.00 | 0.00 | 0.00 | 67 | 1012.8 |
| 20260905170017 | 33 | 238 | 0.0 | 6.4 | 0.00 | 0.00 | 0.00 | 67 | 1012.8 |
| 20260905165917 | 33 | 238 | 1.6 | 6.4 | 0.00 | 0.00 | 0.00 | 66 | 1012.8 |
| 20260905165817 | 33 | 238 | 1.6 | 6.4 | 0.00 | 0.00 | 0.00 | 65 | 1012.8 |
| 20260905165717 | 33 | 238 | 1.6 | 6.4 | 0.00 | 0.00 | 0.00 | 66 | 1012.8 |
| 20260905165617 | 33 | 238 | 3.2 | 6.4 | 0.00 | 0.00 | 0.00 | 67 | 1012.8 |
| 20260905165517 | 33 | 282 | 3.2 | 6.4 | 0.00 | 0.00 | 0.00 | 65 | 1012.8 |
| 20260905165417 | 33 | 219 | 3.2 | 6.4 | 0.00 | 0.00 | 0.00 | 65 | 1012.9 |
| 20260905165314 | 33 | 216 | 3.2 | 6.4 | 0.00 | 0.00 | 0.00 | 67 | 1012.9 |
| 20260905165213 | 33 | 230 | 0.0 | 6.4 | 0.00 | 0.00 | 0.00 | 66 | 1012.8 |
| 20260905165112 | 33 | 173 | 0.0 | 6.4 | 0.00 | 0.00 | 0.00 | 65 | 1012.8 |
| 20260905165011 | 33 | 180 | 0.0 | 6.4 | 0.00 | 0.00 | 0.00 | 65 | 1012.8 |
| 20260905164908 | 33 | 180 | 1.6 | 6.4 | 0.00 | 0.00 | 0.00 | 64 | 1012.8 |
| 20260905164807 | 33 | 180 | 1.6 | 6.4 | 0.00 | 0.00 | 0.00 | 64 | 1012.8 |
| 20260905164706 | 33 | 175 | 1.6 | 6.4 | 0.00 | 0.00 | 0.00 | 65 | 1012.8 |
| 20260905164604 | 33 | 247 | 1.6 | 6.4 | 0.00 | 0.00 | 0.00 | 65 | 1012.8 |
| 20260905164504 | 33 | 219 | 3.2 | 8.0 | 0.00 | 0.00 | 0.00 | 65 | 1012.9 |
| 20260905164404 | 33 | 180 | 3.2 | 8.0 | 0.00 | 0.00 | 0.00 | 64 | 1012.8 |
| 20260905164302 | 33 | 173 | 3.2 | 8.0 | 0.00 | 0.00 | 0.00 | 65 | 1012.8 |
| 20260905164202 | 33 | 183 | 3.2 | 8.0 | 0.00 | 0.00 | 0.00 | 65 | 1012.8 |
| 20260905164102 | 33 | 214 | 3.2 | 8.0 | 0.00 | 0.00 | 0.00 | 64 | 1012.8 |
| 20260905164003 | 33 | 168 | 1.6 | 8.0 | 0.00 | 0.00 | 0.00 | 64 | 1012.8 |
| 20260905163902 | 33 | 157 | 1.6 | 8.0 | 0.00 | 0.00 | 0.00 | 64 | 1012.8 |
| 20260905163802 | 33 | 157 | 1.6 | 8.0 | 0.00 | 0.00 | 0.00 | 65 | 1012.8 |
| 20260905163702 | 33 | 142 | 3.2 | 8.0 | 0.00 | 0.00 | 0.00 | 65 | 1012.8 |
| 20260905163603 | 33 | 137 | 3.2 | 8.0 | 0.00 | 0.00 | 0.00 | 65 | 1012.9 |
| 20260905163502 | 33 | 100 | 1.6 | 8.0 | 0.00 | 0.00 | 0.00 | 64 | 1012.9 |
| 20260905163401 | 33 | 141 | 1.6 | 8.0 | 0.00 | 0.00 | 0.00 | 64 | 1012.9 |
| 20260905163302 | 32 | 147 | 1.6 | 8.0 | 0.00 | 0.00 | 0.00 | 65 | 1012.9 |
| 20260905163201 | 32 | 195 | 1.6 | 9.7 | 0.00 | 0.00 | 0.00 | 66 | 1012.9 |
| 20260905163102 | 32 | 148 | 1.6 | 9.7 | 0.00 | 0.00 | 0.00 | 65 | 1012.9 |
| 20260905163002 | 32 | 255 | 3.2 | 9.7 | 0.00 | 0.00 | 0.00 | 66 | 1012.9 |
| 20260905162902 | 32 | 148 | 3.2 | 9.7 | 0.00 | 0.00 | 0.00 | 66 | 1012.9 |
| 20260905162803 | 32 | 149 | 3.2 | 9.7 | 0.00 | 0.00 | 0.00 | 66 | 1013.0 |
| 20260905162702 | 32 | 149 | 1.6 | 9.7 | 0.00 | 0.00 | 0.00 | 66 | 1012.9 |
| 20260905162602 | 32 | 49 | 1.6 | 9.7 | 0.00 | 0.00 | 0.00 | 66 | 1013.0 |
| 20260905162503 | 32 | 102 | 1.6 | 9.7 | 0.00 | 0.00 | 0.00 | 66 | 1013.1 |
| 20260905162403 | 32 | 155 | 3.2 | 9.7 | 0.00 | 0.00 | 0.00 | 68 | 1013.1 |
| 20260905162305 | 32 | 151 | 3.2 | 9.7 | 0.00 | 0.00 | 0.00 | 67 | 1013.1 |
| 20260905162202 | 32 | 117 | 1.6 | 6.4 | 0.00 | 0.00 | 0.00 | 69 | 1013.1 |
| 20260905162102 | 32 | 166 | 1.6 | 4.8 | 0.00 | 0.00 | 0.00 | 68 | 1013.1 |
| 20260905162003 | 32 | 241 | 1.6 | 4.8 | 0.00 | 0.00 | 0.00 | 68 | 1013.2 |
| 20260905161902 | 32 | 203 | 1.6 | 4.8 | 0.00 | 0.00 | 0.00 | 67 | 1013.2 |
| 20260905161802 | 32 | 203 | 1.6 | 4.8 | 0.00 | 0.00 | 0.00 | 66 | 1013.2 |
| 20260905161702 | 32 | 216 | 0.0 | 4.8 | 0.00 | 0.00 | 0.00 | 67 | 1013.1 |
| 20260905161602 | 32 | 134 | 1.6 | 4.8 | 0.00 | 0.00 | 0.00 | 68 | 1013.1 |
| 20260905161502 | 32 | 137 | 1.6 | 4.8 | 0.00 | 0.00 | 0.00 | 67 | 1013.2 |
| 20260905161402 | 32 | 183 | 1.6 | 4.8 | 0.00 | 0.00 | 0.00 | 67 | 1013.2 |
| 20260905161302 | 32 | 158 | 1.6 | 4.8 | 0.00 | 0.00 | 0.00 | 67 | 1013.2 |
| 20260905161202 | 32 | 158 | 0.0 | 4.8 | 0.00 | 0.00 | 0.00 | 68 | 1013.2 |
| 20260905161102 | 32 | 220 | 0.0 | 4.8 | 0.00 | 0.00 | 0.00 | 69 | 1013.2 |
| 20260905161003 | 32 | 219 | 0.0 | 4.8 | 0.00 | 0.00 | 0.00 | 69 | 1013.2 |
| 20260905160902 | 32 | 210 | 0.0 | 4.8 | 0.00 | 0.00 | 0.00 | 69 | 1013.3 |
| 20260905160802 | 32 | 210 | 0.0 | 4.8 | 0.00 | 0.00 | 0.00 | 69 | 1013.3 |
| 20260905160703 | 32 | 209 | 1.6 | 6.4 | 0.00 | 0.00 | 0.00 | 68 | 1013.2 |
| 20260905160602 | 32 | 228 | 1.6 | 6.4 | 0.00 | 0.00 | 0.00 | 70 | 1013.2 |
| 20260905160503 | 32 | 186 | 1.6 | 8.0 | 0.00 | 0.00 | 0.00 | 69 | 1013.2 |
| 20260905160402 | 31 | 186 | 1.6 | 8.0 | 0.00 | 0.00 | 0.00 | 69 | 1013.3 |
| 20260905160302 | 31 | 202 | 1.6 | 8.0 | 0.00 | 0.00 | 0.00 | 68 | 1013.3 |
| 20260905160202 | 31 | 202 | 1.6 | 8.0 | 0.00 | 0.00 | 0.00 | 68 | 1013.3 |
| 20260905160002 | 31 | 121 | 1.6 | 8.0 | 0.00 | 0.00 | 0.00 | 69 | 1013.3 |
| 20260905155902 | 31 | 121 | 3.2 | 8.0 | 0.00 | 0.00 | 0.00 | 68 | 1013.2 |
| 20260905155802 | 31 | 73 | 3.2 | 8.0 | 0.00 | 0.00 | 0.00 | 69 | 1013.3 |
| 20260905155702 | 31 | 58 | 3.2 | 8.0 | 0.00 | 0.00 | 0.00 | 70 | 1013.3 |
| 20260905155602 | 31 | 56 | 3.2 | 8.0 | 0.00 | 0.00 | 0.00 | 70 | 1013.3 |
| 20260905155503 | 31 | 134 | 1.6 | 6.4 | 0.00 | 0.00 | 0.00 | 70 | 1013.3 |
| 20260905155402 | 31 | 224 | 1.6 | 6.4 | 0.00 | 0.00 | 0.00 | 70 | 1013.3 |
| 20260905155306 | 31 | 214 | 1.6 | 6.4 | 0.00 | 0.00 | 0.00 | 70 | 1013.2 |
| 20260905155203 | 31 | 214 | 3.2 | 6.4 | 0.00 | 0.00 | 0.00 | 69 | 1013.3 |
| 20260905155103 | 31 | 73 | 3.2 | 6.4 | 0.00 | 0.00 | 0.00 | 70 | 1013.3 |
| 20260905155002 | 31 | 59 | 1.6 | 6.4 | 0.00 | 0.00 | 0.00 | 70 | 1013.3 |
| 20260905154902 | 31 | 182 | 3.2 | 6.4 | 0.00 | 0.00 | 0.00 | 69 | 1013.3 |
| 20260905154802 | 31 | 202 | 3.2 | 6.4 | 0.00 | 0.00 | 0.00 | 69 | 1013.2 |
| 20260905154702 | 31 | 165 | 3.2 | 6.4 | 0.00 | 0.00 | 0.00 | 72 | 1013.2 |
| 20260905154602 | 31 | 231 | 1.6 | 6.4 | 0.00 | 0.00 | 0.00 | 71 | 1013.2 |
| 20260905154502 | 31 | 265 | 1.6 | 6.4 | 0.00 | 0.00 | 0.00 | 71 | 1013.2 |
| 20260905154403 | 31 | 240 | 1.6 | 6.4 | 0.00 | 0.00 | 0.00 | 71 | 1013.2 |
| 20260905154303 | 31 | 121 | 1.6 | 6.4 | 0.00 | 0.00 | 0.00 | 71 | 1013.1 |
| 20260905154201 | 31 | 121 | 3.2 | 9.7 | 0.00 | 0.00 | 0.00 | 70 | 1013.2 |
| 20260905154102 | 31 | 114 | 3.2 | 9.7 | 0.00 | 0.00 | 0.00 | 70 | 1013.1 |
| 20260905154002 | 31 | 154 | 1.6 | 9.7 | 0.00 | 0.00 | 0.00 | 71 | 1013.1 |
| 20260905153902 | 31 | 162 | 1.6 | 9.7 | 0.00 | 0.00 | 0.00 | 71 | 1013.0 |
| 20260905153801 | 31 | 204 | 1.6 | 11.3 | 0.00 | 0.00 | 0.00 | 71 | 1013.1 |
| 20260905153702 | 31 | 131 | 1.6 | 11.3 | 0.00 | 0.00 | 0.00 | 71 | 1013.1 |
| 20260905153602 | 31 | 159 | 3.2 | 11.3 | 0.00 | 0.00 | 0.00 | 71 | 1013.0 |
| 20260905153502 | 31 | 206 | 3.2 | 11.3 | 0.00 | 0.00 | 0.00 | 71 | 1013.1 |
| 20260905153402 | 31 | 161 | 3.2 | 11.3 | 0.00 | 0.00 | 0.00 | 72 | 1013.1 |
| 20260905153302 | 31 | 161 | 3.2 | 11.3 | 0.00 | 0.00 | 0.00 | 71 | 1013.0 |
| 20260905153202 | 31 | 134 | 1.6 | 11.3 | 0.00 | 0.00 | 0.00 | 72 | 1013.0 |
| 20260905153103 | 30 | 161 | 3.2 | 11.3 | 0.00 | 0.00 | 0.00 | 72 | 1013.0 |
| 20260905153001 | 30 | 159 | 4.8 | 11.3 | 0.00 | 0.00 | 0.00 | 72 | 1013.0 |
| 20260905152902 | 30 | 154 | 3.2 | 11.3 | 0.00 | 0.00 | 0.00 | 74 | 1012.9 |
| 20260905152802 | 30 | 189 | 3.2 | 6.4 | 0.00 | 0.00 | 0.00 | 74 | 1013.0 |
| 20260905152702 | 30 | 185 | 3.2 | 6.4 | 0.00 | 0.00 | 0.00 | 74 | 1013.1 |
| 20260905152602 | 30 | 161 | 3.2 | 6.4 | 0.00 | 0.00 | 0.00 | 73 | 1013.0 |
| 20260905152502 | 30 | 237 | 3.2 | 6.4 | 0.00 | 0.00 | 0.00 | 74 | 1013.1 |
| 20260905152402 | 30 | 243 | 1.6 | 6.4 | 0.00 | 0.00 | 0.00 | 74 | 1013.2 |
| 20260905152306 | 30 | 212 | 0.0 | 6.4 | 0.00 | 0.00 | 0.00 | 76 | 1013.2 |
| 20260905152202 | 30 | 213 | 0.0 | 6.4 | 0.00 | 0.00 | 0.00 | 77 | 1013.2 |
| 20260905152102 | 30 | 213 | 1.6 | 8.0 | 0.00 | 0.00 | 0.00 | 77 | 1013.2 |
| 20260905152003 | 30 | 212 | 1.6 | 8.0 | 0.00 | 0.00 | 0.00 | 75 | 1013.2 |
| 20260905151902 | 30 | 173 | 0.0 | 8.0 | 0.00 | 0.00 | 0.00 | 76 | 1013.2 |
| 20260905151801 | 30 | 166 | 0.0 | 8.0 | 0.00 | 0.00 | 0.00 | 76 | 1013.2 |
| 20260905151702 | 30 | 168 | 0.0 | 8.0 | 0.00 | 0.00 | 0.00 | 76 | 1013.3 |
| 20260905151602 | 30 | 168 | 1.6 | 8.0 | 0.00 | 0.00 | 0.00 | 77 | 1013.4 |
| 20260905151502 | 30 | 134 | 1.6 | 8.0 | 0.00 | 0.00 | 0.00 | 77 | 1013.4 |
| 20260905151402 | 29 | 62 | 3.2 | 8.0 | 0.00 | 0.00 | 0.00 | 77 | 1013.4 |
| 20260905151302 | 29 | 189 | 3.2 | 8.0 | 0.00 | 0.00 | 0.00 | 77 | 1013.6 |
| 20260905151202 | 29 | 147 | 3.2 | 8.0 | 0.00 | 0.00 | 0.00 | 77 | 1013.6 |
| 20260905151102 | 29 | 162 | 3.2 | 6.4 | 0.00 | 0.00 | 0.00 | 77 | 1013.7 |
| 20260905151002 | 29 | 125 | 1.6 | 6.4 | 0.00 | 0.00 | 0.00 | 77 | 1013.8 |
| 20260905150902 | 29 | 120 | 0.0 | 6.4 | 0.00 | 0.00 | 0.00 | 78 | 1013.7 |
| 20260905150802 | 29 | 120 | 1.6 | 6.4 | 0.00 | 0.00 | 0.00 | 77 | 1013.8 |
| 20260905150702 | 29 | 120 | 1.6 | 6.4 | 0.00 | 0.00 | 0.00 | 77 | 1013.7 |
| 20260905150602 | 29 | 118 | 1.6 | 6.4 | 0.00 | 0.00 | 0.00 | 78 | 1013.7 |
| 20260905150502 | 29 | 149 | 1.6 | 6.4 | 0.00 | 0.00 | 0.00 | 78 | 1013.7 |
| 20260905150402 | 28 | 155 | 1.6 | 6.4 | 0.00 | 0.00 | 0.00 | 78 | 1013.6 |
| 20260905150302 | 28 | 155 | 1.6 | 8.0 | 0.00 | 0.00 | 0.00 | 78 | 1013.6 |
| 20260905150203 | 28 | 180 | 1.6 | 8.0 | 0.00 | 0.00 | 0.00 | 79 | 1013.6 |
| 20260905150002 | 28 | 144 | 1.6 | 8.0 | 0.00 | 0.00 | 0.00 | 78 | 1013.6 |
| 20260905145902 | 28 | 145 | 1.6 | 8.0 | 0.00 | 0.00 | 0.00 | 79 | 1013.4 |
| 20260905145802 | 28 | 63 | 1.6 | 8.0 | 0.00 | 0.00 | 0.00 | 79 | 1013.4 |
| 20260905145702 | 28 | 172 | 1.6 | 8.0 | 0.00 | 0.00 | 0.00 | 79 | 1013.4 |
| 20260905145602 | 28 | 172 | 1.6 | 8.0 | 0.00 | 0.00 | 0.00 | 79 | 1013.6 |
| 20260905145503 | 28 | 173 | 3.2 | 8.0 | 0.00 | 0.00 | 0.00 | 79 | 1013.4 |
| 20260905145403 | 28 | 219 | 3.2 | 8.0 | 0.00 | 0.00 | 0.00 | 80 | 1013.4 |
| 20260905145302 | 28 | 176 | 1.6 | 9.7 | 0.00 | 0.00 | 0.00 | 79 | 1013.6 |
| 20260905145201 | 28 | 161 | 1.6 | 9.7 | 0.00 | 0.00 | 0.00 | 79 | 1013.6 |
| 20260905145103 | 28 | 161 | 3.2 | 9.7 | 0.00 | 0.00 | 0.00 | 79 | 1013.6 |
| 20260905145003 | 28 | 120 | 3.2 | 9.7 | 0.00 | 0.00 | 0.00 | 80 | 1013.6 |
| 20260905144901 | 28 | 192 | 1.6 | 9.7 | 0.00 | 0.00 | 0.00 | 80 | 1013.6 |
| 20260905144801 | 28 | 147 | 3.2 | 9.7 | 0.00 | 0.00 | 0.00 | 80 | 1013.6 |
| 20260905144702 | 28 | 137 | 3.2 | 9.7 | 0.00 | 0.00 | 0.00 | 80 | 1013.6 |
| 20260905144602 | 27 | 190 | 1.6 | 9.7 | 0.00 | 0.00 | 0.00 | 80 | 1013.6 |
| 20260905144502 | 27 | 159 | 3.2 | 9.7 | 0.00 | 0.00 | 0.00 | 80 | 1013.4 |
| 20260905144403 | 27 | 192 | 3.2 | 9.7 | 0.00 | 0.00 | 0.00 | 80 | 1013.6 |
| 20260905144302 | 27 | 141 | 3.2 | 8.0 | 0.00 | 0.00 | 0.00 | 80 | 1013.6 |
| 20260905144202 | 27 | 224 | 3.2 | 9.7 | 0.00 | 0.00 | 0.00 | 80 | 1013.6 |
| 20260905144103 | 27 | 131 | 3.2 | 9.7 | 0.00 | 0.00 | 0.00 | 80 | 1013.6 |
| 20260905144002 | 27 | 128 | 1.6 | 9.7 | 0.00 | 0.00 | 0.00 | 80 | 1013.6 |
| 20260905143902 | 27 | 97 | 0.0 | 9.7 | 0.00 | 0.00 | 0.00 | 80 | 1013.4 |
| 20260905143802 | 27 | 54 | 1.6 | 9.7 | 0.00 | 0.00 | 0.00 | 80 | 1013.4 |
| 20260905143702 | 27 | 173 | 1.6 | 9.7 | 0.00 | 0.00 | 0.00 | 80 | 1013.4 |
| 20260905143602 | 27 | 172 | 3.2 | 9.7 | 0.00 | 0.00 | 0.00 | 80 | 1013.3 |
| 20260905143502 | 27 | 171 | 1.6 | 9.7 | 0.00 | 0.00 | 0.00 | 80 | 1013.3 |
| 20260905143402 | 27 | 180 | 3.2 | 9.7 | 0.00 | 0.00 | 0.00 | 80 | 1013.3 |
| 20260905143302 | 27 | 202 | 3.2 | 9.7 | 0.00 | 0.00 | 0.00 | 79 | 1013.3 |
| 20260905143203 | 27 | 195 | 1.6 | 6.4 | 0.00 | 0.00 | 0.00 | 79 | 1013.2 |
| 20260905143102 | 27 | 221 | 0.0 | 4.8 | 0.00 | 0.00 | 0.00 | 79 | 1013.3 |
| 20260905143002 | 27 | 231 | 0.0 | 8.0 | 0.00 | 0.00 | 0.00 | 79 | 1013.2 |
| 20260905142903 | 27 | 231 | 0.0 | 8.0 | 0.00 | 0.00 | 0.00 | 79 | 1013.3 |
| 20260905142802 | 27 | 231 | 0.0 | 8.0 | 0.00 | 0.00 | 0.00 | 79 | 1013.3 |
| 20260905142702 | 27 | 231 | 0.0 | 8.0 | 0.00 | 0.00 | 0.00 | 79 | 1013.3 |
| 20260905142602 | 27 | 231 | 0.0 | 8.0 | 0.00 | 0.00 | 0.00 | 79 | 1013.3 |
| 20260905142502 | 27 | 231 | 1.6 | 8.0 | 0.00 | 0.00 | 0.00 | 79 | 1013.3 |
| 20260905142403 | 27 | 238 | 1.6 | 8.0 | 0.00 | 0.00 | 0.00 | 79 | 1013.3 |
| 20260905142305 | 27 | 223 | 1.6 | 8.0 | 0.00 | 0.00 | 0.00 | 79 | 1013.3 |
| 20260905142202 | 27 | 224 | 1.6 | 8.0 | 0.00 | 0.00 | 0.00 | 79 | 1013.4 |
| 20260905142102 | 27 | 168 | 1.6 | 8.0 | 0.00 | 0.00 | 0.00 | 79 | 1013.3 |
| 20260905142003 | 27 | 54 | 1.6 | 8.0 | 0.00 | 0.00 | 0.00 | 79 | 1013.3 |
| 20260905141902 | 27 | 168 | 1.6 | 8.0 | 0.00 | 0.00 | 0.00 | 79 | 1013.3 |
| 20260905141803 | 26 | 142 | 3.2 | 8.0 | 0.00 | 0.00 | 0.00 | 78 | 1013.3 |
| 20260905141658 | 26 | 226 | 3.2 | 8.0 | 0.00 | 0.00 | 0.00 | 78 | 1013.3 |
| 20260905141554 | 26 | 176 | 1.6 | 8.0 | 0.00 | 0.00 | 0.00 | 78 | 1013.3 |
| 20260905141453 | 26 | 125 | 1.6 | 9.7 | 0.00 | 0.00 | 0.00 | 78 | 1013.4 |
| 20260905141352 | 26 | 186 | 0.0 | 9.7 | 0.00 | 0.00 | 0.00 | 77 | 1013.3 |
| 20260905141251 | 26 | 188 | 0.0 | 9.7 | 0.00 | 0.00 | 0.00 | 78 | 1013.4 |
| 20260905141148 | 26 | 188 | 1.6 | 9.7 | 0.00 | 0.00 | 0.00 | 78 | 1013.4 |
| 20260905141047 | 26 | 179 | 1.6 | 9.7 | 0.00 | 0.00 | 0.00 | 77 | 1013.6 |
| 20260905140946 | 26 | 127 | 1.6 | 9.7 | 0.00 | 0.00 | 0.00 | 77 | 1013.4 |
| 20260905140844 | 26 | 179 | 0.0 | 9.7 | 0.00 | 0.00 | 0.00 | 77 | 1013.6 |
| 20260905140742 | 26 | 90 | 0.0 | 11.3 | 0.00 | 0.00 | 0.00 | 77 | 1013.6 |
| 20260905140641 | 26 | 90 | 1.6 | 11.3 | 0.00 | 0.00 | 0.00 | 77 | 1013.7 |
| 20260905140540 | 26 | 58 | 0.0 | 11.3 | 0.00 | 0.00 | 0.00 | 76 | 1013.7 |
| 20260905140438 | 26 | 131 | 0.0 | 11.3 | 0.00 | 0.00 | 0.00 | 76 | 1013.7 |
| 20260905140336 | 26 | 80 | 0.0 | 11.3 | 0.00 | 0.00 | 0.00 | 76 | 1013.8 |
| 20260905140235 | 26 | 73 | 0.0 | 11.3 | 0.00 | 0.00 | 0.00 | 76 | 1013.8 |
| 20260905140134 | 26 | 73 | 0.0 | 11.3 | 0.00 | 0.00 | 0.00 | 76 | 1013.7 |
| 20260905140032 | 26 | 73 | 0.0 | 11.3 | 0.00 | 0.00 | 0.00 | 76 | 1013.7 |
| 20260905135931 | 26 | 73 | 3.2 | 11.3 | 0.00 | 0.00 | 0.00 | 76 | 1013.7 |
| 20260905135831 | 26 | 73 | 3.2 | 11.3 | 0.00 | 0.00 | 0.00 | 76 | 1013.7 |
| 20260905135732 | 26 | 85 | 0.0 | 9.7 | 0.00 | 0.00 | 0.00 | 76 | 1013.7 |
| 20260905135632 | 26 | 85 | 0.0 | 9.7 | 0.00 | 0.00 | 0.00 | 76 | 1013.7 |
| 20260905135530 | 26 | 85 | 0.0 | 9.7 | 0.00 | 0.00 | 0.00 | 76 | 1013.6 |
| 20260905135431 | 26 | 85 | 0.0 | 9.7 | 0.00 | 0.00 | 0.00 | 76 | 1013.6 |
| 20260905135329 | 26 | 86 | 0.0 | 9.7 | 0.00 | 0.00 | 0.00 | 76 | 1013.6 |
| 20260905135228 | 26 | 85 | 0.0 | 9.7 | 0.00 | 0.00 | 0.00 | 76 | 1013.6 |
| 20260905135126 | 26 | 85 | 1.6 | 9.7 | 0.00 | 0.00 | 0.00 | 76 | 1013.6 |
| 20260905135024 | 26 | 86 | 3.2 | 9.7 | 0.00 | 0.00 | 0.00 | 76 | 1013.6 |
| 20260905134923 | 26 | 68 | 4.8 | 9.7 | 0.00 | 0.00 | 0.00 | 76 | 1013.6 |
| 20260905134822 | 26 | 39 | 1.6 | 9.7 | 0.00 | 0.00 | 0.00 | 75 | 1013.4 |
| 20260905134720 | 26 | 93 | 0.0 | 6.4 | 0.00 | 0.00 | 0.00 | 76 | 1013.6 |
| 20260905134619 | 26 | 90 | 0.0 | 6.4 | 0.00 | 0.00 | 0.00 | 76 | 1013.4 |
| 20260905134517 | 26 | 90 | 0.0 | 6.4 | 0.00 | 0.00 | 0.00 | 76 | 1013.4 |
| 20260905134416 | 26 | 258 | 0.0 | 0.0 | 0.00 | 0.00 | 0.00 | 76 | 1013.3 |
| 20260905134315 | 26 | 258 | 0.0 | 0.0 | 0.00 | 0.00 | 0.00 | 76 | 1013.3 |
| 20260905134213 | 26 | 258 | 0.0 | 0.0 | 0.00 | 0.00 | 0.00 | 76 | 1013.2 |
| 20260905134113 | 26 | 258 | 0.0 | 0.0 | 0.00 | 0.00 | 0.00 | 76 | 1013.1 |
| 20260905134013 | 26 | 258 | 0.0 | 0.0 | 0.00 | 0.00 | 0.00 | 76 | 1013.1 |
| 20260905133913 | 26 | 258 | 0.0 | 0.0 | 0.00 | 0.00 | 0.00 | 76 | 1013.1 |
| 20260905133813 | 26 | 258 | 0.0 | 0.0 | 0.00 | 0.00 | 0.00 | 76 | 1013.1 |
| 20260905133713 | 26 | 258 | 0.0 | 0.0 | 0.00 | 0.00 | 0.00 | 75 | 1013.0 |
| 20260905133612 | 26 | 258 | 0.0 | 0.0 | 0.00 | 0.00 | 0.00 | 75 | 1013.1 |
| 20260905133510 | 26 | 258 | 0.0 | 0.0 | 0.00 | 0.00 | 0.00 | 75 | 1013.0 |
| 20260905133408 | 26 | 258 | 0.0 | 0.0 | 0.00 | 0.00 | 0.00 | 75 | 1013.0 |
| 20260905133307 | 26 | 258 | 0.0 | 0.0 | 0.00 | 0.00 | 0.00 | 75 | 1013.0 |
| 20260905133202 | 26 | 258 | 0.0 | 0.0 | 0.00 | 0.00 | 0.00 | 75 | 1013.0 |
| 20260905133102 | 26 | 258 | 0.0 | 0.0 | 0.00 | 0.00 | 0.00 | 75 | 1013.0 |
| 20260905133002 | 26 | 258 | 0.0 | 0.0 | 0.00 | 0.00 | 0.00 | 74 | 1013.0 |
| 20260905132902 | 26 | 258 | 0.0 | 0.0 | 0.00 | 0.00 | 0.00 | 74 | 1013.0 |
| 20260905132802 | 26 | 258 | 0.0 | 0.0 | 0.00 | 0.00 | 0.00 | 74 | 1013.0 |
| 20260905132702 | 26 | 258 | 0.0 | 0.0 | 0.00 | 0.00 | 0.00 | 74 | 1013.1 |
| 20260905132603 | 26 | 258 | 0.0 | 0.0 | 0.00 | 0.00 | 0.00 | 73 | 1013.1 |
| 20260905132502 | 26 | 258 | 0.0 | 0.0 | 0.00 | 0.00 | 0.00 | 73 | 1013.1 |
| 20260905132403 | 26 | 258 | 0.0 | 0.0 | 0.00 | 0.00 | 0.00 | 73 | 1013.1 |
| 20260905132305 | 26 | 258 | 0.0 | 0.0 | 0.00 | 0.00 | 0.00 | 73 | 1013.0 |
| 20260905132202 | 25 | 258 | 0.0 | 0.0 | 0.00 | 0.00 | 0.00 | 73 | 1013.0 |
| 20260905132102 | 25 | 258 | 0.0 | 0.0 | 0.00 | 0.00 | 0.00 | 73 | 1013.0 |
| 20260905132002 | 25 | 258 | 0.0 | 0.0 | 0.00 | 0.00 | 0.00 | 73 | 1013.0 |
| 20260905131902 | 25 | 258 | 0.0 | 0.0 | 0.00 | 0.00 | 0.00 | 73 | 1013.1 |
| 20260905131802 | 25 | 258 | 0.0 | 0.0 | 0.00 | 0.00 | 0.00 | 73 | 1013.0 |
| 20260905131702 | 25 | 258 | 0.0 | 0.0 | 0.00 | 0.00 | 0.00 | 73 | 1013.1 |
| 20260905131602 | 25 | 258 | 0.0 | 0.0 | 0.00 | 0.00 | 0.00 | 73 | 1013.1 |
| 20260905131502 | 25 | 258 | 0.0 | 0.0 | 0.00 | 0.00 | 0.00 | 73 | 1013.1 |
| 20260905131402 | 25 | 258 | 0.0 | 0.0 | 0.00 | 0.00 | 0.00 | 73 | 1013.1 |
| 20260905131302 | 25 | 258 | 0.0 | 0.0 | 0.00 | 0.00 | 0.00 | 73 | 1013.0 |
| 20260905131202 | 25 | 258 | 0.0 | 0.0 | 0.00 | 0.00 | 0.00 | 73 | 1013.1 |
| 20260905131102 | 25 | 258 | 0.0 | 0.0 | 0.00 | 0.00 | 0.00 | 73 | 1013.1 |
| 20260905131002 | 25 | 258 | 0.0 | 0.0 | 0.00 | 0.00 | 0.00 | 73 | 1013.1 |
| 20260905130902 | 25 | 258 | 0.0 | 0.0 | 0.00 | 0.00 | 0.00 | 73 | 1013.0 |
| 20260905130802 | 25 | 258 | 0.0 | 0.0 | 0.00 | 0.00 | 0.00 | 72 | 1013.0 |
| 20260905130703 | 25 | 258 | 0.0 | 0.0 | 0.00 | 0.00 | 0.00 | 72 | 1013.0 |
| 20260905130602 | 25 | 258 | 0.0 | 0.0 | 0.00 | 0.00 | 0.00 | 72 | 1013.1 |
| 20260905130502 | 25 | 258 | 0.0 | 0.0 | 0.00 | 0.00 | 0.00 | 72 | 1013.0 |
| 20260905130402 | 25 | 258 | 0.0 | 0.0 | 0.00 | 0.00 | 0.00 | 72 | 1013.0 |
| 20260905130303 | 25 | 258 | 0.0 | 0.0 | 0.00 | 0.00 | 0.00 | 71 | 1013.0 |
| 20260905130202 | 25 | 258 | 0.0 | 0.0 | 0.00 | 0.00 | 0.00 | 71 | 1012.9 |
| 20260905130002 | 25 | 258 | 0.0 | 0.0 | 0.00 | 0.00 | 0.00 | 70 | 1013.0 |
| 20260905125902 | 25 | 258 | 0.0 | 0.0 | 0.00 | 0.00 | 0.00 | 70 | 1013.0 |
| 20260905125802 | 25 | 258 | 0.0 | 0.0 | 0.00 | 0.00 | 0.00 | 69 | 1013.0 |
| 20260905125702 | 25 | 258 | 0.0 | 0.0 | 0.00 | 0.00 | 0.00 | 69 | 1013.0 |
| 20260905125602 | 25 | 258 | 0.0 | 0.0 | 0.00 | 0.00 | 0.00 | 69 | 1013.0 |
| 20260905125503 | 25 | 258 | 0.0 | 0.0 | 0.00 | 0.00 | 0.00 | 69 | 1013.0 |
| 20260905125402 | 25 | 258 | 0.0 | 0.0 | 0.00 | 0.00 | 0.00 | 69 | 1013.1 |
| 20260905125305 | 25 | 258 | 0.0 | 0.0 | 0.00 | 0.00 | 0.00 | 69 | 1013.0 |
| 20260905125202 | 24 | 258 | 0.0 | 0.0 | 0.00 | 0.00 | 0.00 | 69 | 1013.1 |
| 20260905125103 | 24 | 258 | 0.0 | 0.0 | 0.00 | 0.00 | 0.00 | 69 | 1013.0 |
| 20260905125003 | 24 | 258 | 0.0 | 0.0 | 0.00 | 0.00 | 0.00 | 69 | 1013.0 |
| 20260905124902 | 24 | 258 | 0.0 | 0.0 | 0.00 | 0.00 | 0.00 | 69 | 1013.0 |
| 20260905124802 | 24 | 258 | 0.0 | 0.0 | 0.00 | 0.00 | 0.00 | 69 | 1013.0 |
| 20260905124702 | 24 | 258 | 0.0 | 0.0 | 0.00 | 0.00 | 0.00 | 69 | 1013.0 |
| 20260905124602 | 24 | 258 | 0.0 | 0.0 | 0.00 | 0.00 | 0.00 | 69 | 1013.0 |
| 20260905124504 | 24 | 258 | 0.0 | 0.0 | 0.00 | 0.00 | 0.00 | 69 | 1012.9 |
| 20260905124404 | 24 | 258 | 0.0 | 0.0 | 0.00 | 0.00 | 0.00 | 69 | 1012.9 |
| 20260905124303 | 24 | 258 | 0.0 | 0.0 | 0.00 | 0.00 | 0.00 | 69 | 1012.9 |
| 20260905124202 | 24 | 258 | 0.0 | 0.0 | 0.00 | 0.00 | 0.00 | 69 | 1012.8 |
| 20260905124102 | 23 | 258 | 0.0 | 0.0 | 0.00 | 0.00 | 0.00 | 69 | 1012.8 |
| 20260905124003 | 23 | 258 | 0.0 | 0.0 | 0.00 | 0.00 | 0.00 | 69 | 1012.8 |
| 20260905123903 | 23 | 258 | 0.0 | 0.0 | 0.00 | 0.00 | 0.00 | 69 | 1012.8 |
| 20260905123801 | 23 | 258 | 0.0 | 0.0 | 0.00 | 0.00 | 0.00 | 69 | 1012.8 |
| 20260905123702 | 23 | 258 | 0.0 | 0.0 | 0.00 | 0.00 | 0.00 | 69 | 1012.8 |
| 20260905123602 | 23 | 258 | 0.0 | 0.0 | 0.00 | 0.00 | 0.00 | 69 | 1012.8 |
| 20260905123502 | 23 | 258 | 0.0 | 0.0 | 0.00 | 0.00 | 0.00 | 69 | 1012.8 |
| 20260905123402 | 23 | 258 | 0.0 | 0.0 | 0.00 | 0.00 | 0.00 | 70 | 1012.8 |
| 20260905123302 | 23 | 258 | 0.0 | 0.0 | 0.00 | 0.00 | 0.00 | 70 | 1012.8 |
| 20260905123202 | 23 | 258 | 0.0 | 0.0 | 0.00 | 0.00 | 0.00 | 70 | 1012.8 |
| 20260905123103 | 23 | 258 | 0.0 | 0.0 | 0.00 | 0.00 | 0.00 | 70 | 1012.9 |
| 20260905123003 | 23 | 258 | 0.0 | 0.0 | 0.00 | 0.00 | 0.00 | 70 | 1012.9 |
| 20260905122902 | 23 | 258 | 0.0 | 0.0 | 0.00 | 0.00 | 0.00 | 70 | 1012.9 |
| 20260905122802 | 23 | 258 | 0.0 | 0.0 | 0.00 | 0.00 | 0.00 | 70 | 1012.9 |
| 20260905122702 | 23 | 258 | 0.0 | 0.0 | 0.00 | 0.00 | 0.00 | 70 | 1012.9 |
| 20260905122603 | 23 | 258 | 0.0 | 0.0 | 0.00 | 0.00 | 0.00 | 70 | 1012.9 |
| 20260905122502 | 23 | 258 | 0.0 | 0.0 | 0.00 | 0.00 | 0.00 | 70 | 1012.9 |
| 20260905122402 | 23 | 258 | 0.0 | 0.0 | 0.00 | 0.00 | 0.00 | 70 | 1012.9 |
| 20260905122306 | 23 | 258 | 0.0 | 0.0 | 0.00 | 0.00 | 0.00 | 70 | 1012.9 |
| 20260905122202 | 23 | 258 | 0.0 | 0.0 | 0.00 | 0.00 | 0.00 | 70 | 1012.9 |
| 20260905122102 | 23 | 258 | 0.0 | 0.0 | 0.00 | 0.00 | 0.00 | 70 | 1012.9 |
| 20260905122002 | 23 | 258 | 0.0 | 0.0 | 0.00 | 0.00 | 0.00 | 70 | 1012.9 |
| 20260905121902 | 23 | 258 | 0.0 | 0.0 | 0.00 | 0.00 | 0.00 | 70 | 1012.9 |
| 20260905121802 | 23 | 258 | 0.0 | 0.0 | 0.00 | 0.00 | 0.00 | 70 | 1012.9 |
| 20260905121702 | 23 | 258 | 0.0 | 0.0 | 0.00 | 0.00 | 0.00 | 70 | 1012.9 |
| 20260905121602 | 23 | 258 | 0.0 | 0.0 | 0.00 | 0.00 | 0.00 | 70 | 1012.9 |
| 20260905121502 | 23 | 258 | 0.0 | 0.0 | 0.00 | 0.00 | 0.00 | 70 | 1012.9 |
| 20260905121402 | 23 | 258 | 0.0 | 0.0 | 0.00 | 0.00 | 0.00 | 70 | 1012.9 |
| 20260905121302 | 23 | 258 | 0.0 | 0.0 | 0.00 | 0.00 | 0.00 | 70 | 1012.9 |
| 20260905121202 | 23 | 258 | 0.0 | 0.0 | 0.00 | 0.00 | 0.00 | 70 | 1012.8 |
| 20260905121102 | 23 | 258 | 0.0 | 0.0 | 0.00 | 0.00 | 0.00 | 70 | 1012.8 |
| 20260905121002 | 23 | 258 | 0.0 | 0.0 | 0.00 | 0.00 | 0.00 | 70 | 1012.9 |
| 20260905120902 | 23 | 258 | 0.0 | 0.0 | 0.00 | 0.00 | 0.00 | 70 | 1012.9 |
| 20260905120802 | 23 | 258 | 0.0 | 0.0 | 0.00 | 0.00 | 0.00 | 70 | 1012.9 |
| 20260905120702 | 23 | 258 | 0.0 | 0.0 | 0.00 | 0.00 | 0.00 | 70 | 1012.8 |
| 20260905120602 | 23 | 258 | 0.0 | 0.0 | 0.00 | 0.00 | 0.00 | 70 | 1012.8 |
| 20260905120503 | 23 | 258 | 0.0 | 0.0 | 0.00 | 0.00 | 0.00 | 70 | 1012.8 |
| 20260905120403 | 23 | 258 | 0.0 | 0.0 | 0.00 | 0.00 | 0.00 | 70 | 1012.8 |
| 20260905120302 | 23 | 258 | 0.0 | 0.0 | 0.00 | 0.00 | 0.00 | 70 | 1012.8 |
| 20260905120203 | 23 | 258 | 0.0 | 0.0 | 0.00 | 0.00 | 0.00 | 70 | 1012.8 |
| 20260905120004 | 23 | 258 | 0.0 | 0.0 | 0.00 | 0.00 | 0.00 | 70 | 1012.8 |
| 20260905115901 | 23 | 258 | 0.0 | 0.0 | 0.00 | 0.00 | 0.00 | 70 | 1012.8 |
| 20260905115802 | 23 | 258 | 0.0 | 0.0 | 0.00 | 0.00 | 0.00 | 70 | 1012.8 |
| 20260905115702 | 23 | 258 | 0.0 | 0.0 | 0.00 | 0.00 | 0.00 | 70 | 1012.8 |
| 20260905115602 | 23 | 258 | 0.0 | 0.0 | 0.00 | 0.00 | 0.00 | 70 | 1012.9 |
| 20260905115502 | 23 | 258 | 0.0 | 0.0 | 0.00 | 0.00 | 0.00 | 70 | 1012.8 |
| 20260905115402 | 23 | 258 | 0.0 | 0.0 | 0.00 | 0.00 | 0.00 | 70 | 1012.8 |
| 20260905115305 | 23 | 258 | 0.0 | 0.0 | 0.00 | 0.00 | 0.00 | 70 | 1012.8 |
| 20260905115202 | 23 | 258 | 0.0 | 0.0 | 0.00 | 0.00 | 0.00 | 70 | 1012.8 |
| 20260905115103 | 23 | 258 | 0.0 | 0.0 | 0.00 | 0.00 | 0.00 | 70 | 1012.9 |
| 20260905115003 | 23 | 258 | 0.0 | 0.0 | 0.00 | 0.00 | 0.00 | 70 | 1012.9 |
| 20260905114901 | 23 | 258 | 0.0 | 0.0 | 0.00 | 0.00 | 0.00 | 70 | 1012.8 |
| 20260905114803 | 23 | 258 | 0.0 | 0.0 | 0.00 | 0.00 | 0.00 | 70 | 1012.8 |
| 20260905114703 | 23 | 258 | 0.0 | 0.0 | 0.00 | 0.00 | 0.00 | 70 | 1012.8 |
| 20260905114603 | 23 | 258 | 0.0 | 0.0 | 0.00 | 0.00 | 0.00 | 70 | 1012.8 |
| 20260905114503 | 23 | 258 | 0.0 | 0.0 | 0.00 | 0.00 | 0.00 | 70 | 1012.8 |
| 20260905114404 | 23 | 258 | 0.0 | 0.0 | 0.00 | 0.00 | 0.00 | 70 | 1012.7 |
| 20260905114302 | 23 | 258 | 0.0 | 0.0 | 0.00 | 0.00 | 0.00 | 70 | 1012.7 |
| 20260905114202 | 23 | 258 | 0.0 | 0.0 | 0.00 | 0.00 | 0.00 | 70 | 1012.6 |
| 20260905114102 | 23 | 258 | 0.0 | 0.0 | 0.00 | 0.00 | 0.00 | 70 | 1012.7 |
| 20260905114003 | 23 | 258 | 0.0 | 0.0 | 0.00 | 0.00 | 0.00 | 70 | 1012.7 |
| 20260905113902 | 23 | 258 | 0.0 | 0.0 | 0.00 | 0.00 | 0.00 | 70 | 1012.6 |
| 20260905113802 | 23 | 258 | 0.0 | 0.0 | 0.00 | 0.00 | 0.00 | 70 | 1012.6 |
| 20260905113703 | 23 | 258 | 0.0 | 0.0 | 0.00 | 0.00 | 0.00 | 70 | 1012.6 |
| 20260905113601 | 23 | 258 | 0.0 | 0.0 | 0.00 | 0.00 | 0.00 | 70 | 1012.7 |
| 20260905113502 | 23 | 258 | 0.0 | 0.0 | 0.00 | 0.00 | 0.00 | 70 | 1012.7 |
| 20260905113402 | 23 | 258 | 0.0 | 0.0 | 0.00 | 0.00 | 0.00 | 70 | 1012.7 |
| 20260905113302 | 23 | 258 | 0.0 | 0.0 | 0.00 | 0.00 | 0.00 | 70 | 1012.7 |
| 20260905113202 | 23 | 258 | 0.0 | 0.0 | 0.00 | 0.00 | 0.00 | 70 | 1012.7 |
| 20260905113102 | 23 | 258 | 0.0 | 0.0 | 0.00 | 0.00 | 0.00 | 70 | 1012.7 |
| 20260905113003 | 23 | 258 | 0.0 | 0.0 | 0.00 | 0.00 | 0.00 | 70 | 1012.7 |
| 20260905112902 | 23 | 258 | 0.0 | 0.0 | 0.00 | 0.00 | 0.00 | 70 | 1012.7 |
| 20260905112802 | 23 | 258 | 0.0 | 0.0 | 0.00 | 0.00 | 0.00 | 70 | 1012.8 |
| 20260905112702 | 23 | 258 | 0.0 | 0.0 | 0.00 | 0.00 | 0.00 | 70 | 1012.7 |
| 20260905112602 | 23 | 258 | 0.0 | 0.0 | 0.00 | 0.00 | 0.00 | 70 | 1012.8 |
| 20260905112503 | 23 | 258 | 0.0 | 0.0 | 0.00 | 0.00 | 0.00 | 70 | 1012.8 |
| 20260905112402 | 23 | 258 | 0.0 | 0.0 | 0.00 | 0.00 | 0.00 | 70 | 1012.8 |
| 20260905112305 | 23 | 258 | 0.0 | 0.0 | 0.00 | 0.00 | 0.00 | 70 | 1012.7 |
| 20260905112202 | 23 | 258 | 0.0 | 0.0 | 0.00 | 0.00 | 0.00 | 70 | 1012.7 |
| 20260905112103 | 23 | 258 | 0.0 | 0.0 | 0.00 | 0.00 | 0.00 | 70 | 1012.7 |
| 20260905112002 | 23 | 258 | 0.0 | 0.0 | 0.00 | 0.00 | 0.00 | 70 | 1012.7 |
| 20260905111902 | 23 | 258 | 0.0 | 0.0 | 0.00 | 0.00 | 0.00 | 70 | 1012.7 |
| 20260905111803 | 23 | 258 | 0.0 | 0.0 | 0.00 | 0.00 | 0.00 | 70 | 1012.8 |
| 20260905111702 | 23 | 258 | 0.0 | 0.0 | 0.00 | 0.00 | 0.00 | 70 | 1012.8 |
| 20260905111601 | 23 | 258 | 0.0 | 0.0 | 0.00 | 0.00 | 0.00 | 70 | 1012.8 |
| 20260905111500 | 23 | 258 | 0.0 | 0.0 | 0.00 | 0.00 | 0.00 | 70 | 1012.7 |
| 20260905111359 | 23 | 258 | 0.0 | 0.0 | 0.00 | 0.00 | 0.00 | 70 | 1012.7 |
| 20260905111256 | 23 | 258 | 0.0 | 0.0 | 0.00 | 0.00 | 0.00 | 70 | 1012.7 |
| 20260905111155 | 23 | 258 | 0.0 | 0.0 | 0.00 | 0.00 | 0.00 | 70 | 1012.7 |
| 20260905111054 | 23 | 258 | 0.0 | 0.0 | 0.00 | 0.00 | 0.00 | 70 | 1012.7 |
| 20260905110947 | 23 | 258 | 0.0 | 0.0 | 0.00 | 0.00 | 0.00 | 70 | 1012.7 |
| 20260905110845 | 23 | 258 | 0.0 | 0.0 | 0.00 | 0.00 | 0.00 | 70 | 1012.6 |
| 20260905110738 | 23 | 258 | 0.0 | 0.0 | 0.00 | 0.00 | 0.00 | 70 | 1012.6 |
| 20260905110635 | 23 | 258 | 0.0 | 0.0 | 0.00 | 0.00 | 0.00 | 70 | 1012.6 |
| 20260905110533 | 23 | 258 | 0.0 | 0.0 | 0.00 | 0.00 | 0.00 | 70 | 1012.6 |
| 20260905110432 | 23 | 258 | 0.0 | 0.0 | 0.00 | 0.00 | 0.00 | 70 | 1012.6 |
| 20260905110331 | 23 | 258 | 0.0 | 0.0 | 0.00 | 0.00 | 0.00 | 70 | 1012.6 |
| 20260905110231 | 23 | 258 | 0.0 | 0.0 | 0.00 | 0.00 | 0.00 | 70 | 1012.6 |
| 20260905110131 | 23 | 258 | 0.0 | 0.0 | 0.00 | 0.00 | 0.00 | 70 | 1012.6 |
| 20260905110028 | 23 | 258 | 0.0 | 0.0 | 0.00 | 0.00 | 0.00 | 70 | 1012.6 |
| 20260905105928 | 23 | 258 | 0.0 | 0.0 | 0.00 | 0.00 | 0.00 | 70 | 1012.6 |
| 20260905105826 | 23 | 258 | 0.0 | 0.0 | 0.00 | 0.00 | 0.00 | 70 | 1012.6 |
| 20260905105725 | 23 | 258 | 0.0 | 0.0 | 0.00 | 0.00 | 0.00 | 70 | 1012.6 |
| 20260905105623 | 23 | 258 | 0.0 | 0.0 | 0.00 | 0.00 | 0.00 | 70 | 1012.6 |
| 20260905105521 | 23 | 258 | 0.0 | 0.0 | 0.00 | 0.00 | 0.00 | 70 | 1012.6 |
| 20260905105417 | 23 | 258 | 0.0 | 0.0 | 0.00 | 0.00 | 0.00 | 71 | 1012.6 |
| 20260905105315 | 23 | 258 | 0.0 | 0.0 | 0.00 | 0.00 | 0.00 | 70 | 1012.6 |
| 20260905105214 | 23 | 258 | 0.0 | 0.0 | 0.00 | 0.00 | 0.00 | 71 | 1012.6 |
| 20260905105110 | 23 | 258 | 0.0 | 0.0 | 0.00 | 0.00 | 0.00 | 71 | 1012.5 |
| 20260905105008 | 23 | 258 | 0.0 | 0.0 | 0.00 | 0.00 | 0.00 | 71 | 1012.5 |
| 20260905104908 | 23 | 258 | 0.0 | 0.0 | 0.00 | 0.00 | 0.00 | 71 | 1012.6 |
| 20260905104808 | 23 | 258 | 0.0 | 0.0 | 0.00 | 0.00 | 0.00 | 70 | 1012.5 |
| 20260905104708 | 23 | 258 | 0.0 | 0.0 | 0.00 | 0.00 | 0.00 | 70 | 1012.5 |
| 20260905104608 | 23 | 258 | 0.0 | 0.0 | 0.00 | 0.00 | 0.00 | 70 | 1012.5 |
| 20260905104508 | 23 | 258 | 0.0 | 0.0 | 0.00 | 0.00 | 0.00 | 70 | 1012.5 |
| 20260905104408 | 23 | 258 | 0.0 | 0.0 | 0.00 | 0.00 | 0.00 | 70 | 1012.5 |
| 20260905104309 | 23 | 258 | 0.0 | 0.0 | 0.00 | 0.00 | 0.00 | 70 | 1012.5 |
| 20260905104209 | 23 | 258 | 0.0 | 0.0 | 0.00 | 0.00 | 0.00 | 70 | 1012.5 |